HB4LO-13 Weather Reports


time (UTC)temp
C
wind
direction
speed
KPH
gust
KPH
rain 1hr
cm
rain 24hr
cm
rain mn
cm
humidity
%
barometer
mb
20260510075406 16 174 1.6 11.3 0.00 0.00 0.00 62
20260510075306 16 186 3.2 11.3 0.00 0.00 0.00 62
20260510075206 16 179 4.8 11.3 0.00 0.00 0.00 63
20260510075106 16 174 3.2 11.3 0.00 0.00 0.00 62
20260510075006 16 185 4.8 11.3 0.00 0.00 0.00 62
20260510074906 16 170 4.8 11.3 0.00 0.00 0.00 61
20260510074806 16 170 3.2 6.4 0.00 0.00 0.00 62
20260510074706 16 180 3.2 6.4 0.00 0.00 0.00 62
20260510074606 16 173 3.2 6.4 0.00 0.00 0.00 62
20260510074506 16 173 4.8 6.4 0.00 0.00 0.00 62
20260510074406 16 176 1.6 6.4 0.00 0.00 0.00 62
20260510074306 16 187 1.6 6.4 0.00 0.00 0.00 62
20260510074206 16 188 3.2 6.4 0.00 0.00 0.00 62
20260510074106 16 181 3.2 6.4 0.00 0.00 0.00 62
20260510074006 16 187 3.2 6.4 0.00 0.00 0.00 62
20260510073906 16 186 3.2 6.4 0.00 0.00 0.00 63
20260510073806 16 168 4.8 6.4 0.00 0.00 0.00 62
20260510073706 16 179 3.2 6.4 0.00 0.00 0.00 63
20260510073606 16 168 3.2 6.4 0.00 0.00 0.00 63
20260510073506 16 166 3.2 8.0 0.00 0.00 0.00 63
20260510073406 16 185 3.2 8.0 0.00 0.00 0.00 62
20260510073306 16 187 1.6 8.0 0.00 0.00 0.00 63
20260510073206 16 186 3.2 8.0 0.00 0.00 0.00 62
20260510073106 16 178 4.8 8.0 0.00 0.00 0.00 62
20260510073006 16 173 3.2 6.4 0.00 0.00 0.00 62
20260510072906 16 185 3.2 6.4 0.00 0.00 0.00 62
20260510072806 16 185 1.6 6.4 0.00 0.00 0.00 62
20260510072706 16 175 1.6 6.4 0.00 0.00 0.00 62
20260510072606 16 179 1.6 6.4 0.00 0.00 0.00 62
20260510072506 16 168 1.6 6.4 0.00 0.00 0.00 62
20260510072406 16 173 3.2 6.4 0.00 0.00 0.00 62
20260510072306 16 178 3.2 6.4 0.00 0.00 0.00 62
20260510072206 16 179 3.2 6.4 0.00 0.00 0.00 62
20260510072106 16 187 1.6 6.4 0.00 0.00 0.00 62
20260510072006 16 182 1.6 6.4 0.00 0.00 0.00 62
20260510071906 16 178 1.6 6.4 0.00 0.00 0.00 62
20260510071806 16 175 1.6 6.4 0.00 0.00 0.00 62
20260510071706 16 168 1.6 6.4 0.00 0.00 0.00 63
20260510071606 16 174 1.6 6.4 0.00 0.00 0.00 63
20260510071506 16 174 0.0 6.4 0.00 0.00 0.00 64
20260510071406 16 173 3.2 8.0 0.00 0.00 0.00 63
20260510071306 16 178 4.8 8.0 0.00 0.00 0.00 63
20260510071206 16 177 3.2 8.0 0.00 0.00 0.00 64
20260510071106 16 185 3.2 8.0 0.00 0.00 0.00 64
20260510071006 16 178 4.8 8.0 0.00 0.00 0.00 63
20260510070906 16 186 1.6 8.0 0.00 0.00 0.00 64
20260510070806 16 176 1.6 8.0 0.00 0.00 0.00 64
20260510070706 16 176 1.6 8.0 0.00 0.00 0.00 64
20260510070606 16 173 1.6 8.0 0.00 0.00 0.00 65
20260510070506 16 176 4.8 8.0 0.00 0.00 0.00 64
20260510070406 16 174 3.2 8.0 0.00 0.00 0.00 64
20260510070306 16 172 3.2 6.4 0.00 0.00 0.00 64
20260510070206 16 184 1.6 6.4 0.00 0.00 0.00 64
20260510070106 16 174 1.6 6.4 0.00 0.00 0.00 65
20260510070006 15 185 1.6 6.4 0.00 0.00 0.00 65
20260510065906 15 176 3.2 6.4 0.00 0.00 0.00 65
20260510065806 15 176 1.6 6.4 0.00 0.00 0.00 65
20260510065706 15 186 3.2 6.4 0.00 0.00 0.00 65
20260510065606 15 180 3.2 6.4 0.00 0.00 0.00 65
20260510065506 15 178 3.2 6.4 0.00 0.00 0.00 65
20260510065406 15 175 3.2 6.4 0.00 0.00 0.00 65
20260510065306 15 175 1.6 6.4 0.00 0.00 0.00 65
20260510065206 15 189 0.0 8.0 0.00 0.00 0.00 65
20260510065106 15 188 1.6 8.0 0.00 0.00 0.00 65
20260510065006 15 174 3.2 8.0 0.00 0.00 0.00 65
20260510064906 15 185 3.2 8.0 0.00 0.00 0.00 65
20260510064806 15 168 4.8 8.0 0.00 0.00 0.00 65
20260510064706 15 181 1.6 6.4 0.00 0.00 0.00 66
20260510064606 15 173 3.2 8.0 0.00 0.00 0.00 66
20260510064506 15 184 3.2 8.0 0.00 0.00 0.00 65
20260510064406 15 179 4.8 8.0 0.00 0.00 0.00 66
20260510064306 15 176 3.2 8.0 0.00 0.00 0.00 66
20260510064206 15 165 4.8 8.0 0.00 0.00 0.00 65
20260510064106 15 186 4.8 8.0 0.00 0.00 0.00 66
20260510064006 15 169 4.8 8.0 0.00 0.00 0.00 65
20260510063906 15 179 3.2 6.4 0.00 0.00 0.00 65
20260510063806 15 182 1.6 6.4 0.00 0.00 0.00 66
20260510063706 15 189 3.2 6.4 0.00 0.00 0.00 66
20260510063606 15 182 3.2 6.4 0.00 0.00 0.00 65
20260510063506 15 187 1.6 3.2 0.00 0.00 0.00 66
20260510063406 15 175 1.6 3.2 0.00 0.00 0.00 66
20260510063306 15 182 1.6 3.2 0.00 0.00 0.00 66
20260510063206 15 173 1.6 3.2 0.00 0.00 0.00 66
20260510063106 15 177 0.0 3.2 0.00 0.00 0.00 67
20260510063006 15 180 0.0 3.2 0.00 0.00 0.00 67
20260510062906 15 184 0.0 3.2 0.00 0.00 0.00 67
20260510062806 14 185 0.0 3.2 0.00 0.00 0.00 68
20260510062706 14 186 0.0 6.4 0.00 0.00 0.00 68
20260510062606 14 184 1.6 6.4 0.00 0.00 0.00 67
20260510062506 14 186 1.6 6.4 0.00 0.00 0.00 68
20260510062406 14 184 1.6 6.4 0.00 0.00 0.00 68
20260510062307 14 186 1.6 6.4 0.00 0.00 0.00 69
20260510062206 14 179 1.6 3.2 0.00 0.00 0.00 69
20260510062106 14 187 0.0 3.2 0.00 0.00 0.00 69
20260510062006 14 184 1.6 3.2 0.00 0.00 0.00 69
20260510061906 14 176 1.6 3.2 0.00 0.00 0.00 69
20260510061806 14 187 1.6 3.2 0.00 0.00 0.00 69
20260510061706 14 186 0.0 3.2 0.00 0.00 0.00 69
20260510061606 14 176 0.0 3.2 0.00 0.00 0.00 70
20260510061506 13 184 0.0 3.2 0.00 0.00 0.00 70
20260510061406 13 186 1.6 3.2 0.00 0.00 0.00 70
20260510061306 13 184 1.6 3.2 0.00 0.00 0.00 70
20260510061206 13 184 0.0 3.2 0.00 0.00 0.00 70
20260510061106 13 187 1.6 3.2 0.00 0.00 0.00 71
20260510061006 13 184 1.6 3.2 0.00 0.00 0.00 70
20260510060906 13 184 0.0 3.2 0.00 0.00 0.00 71
20260510060806 13 187 1.6 3.2 0.00 0.00 0.00 71
20260510060706 13 183 0.0 6.4 0.00 0.00 0.00 71
20260510060606 13 183 0.0 6.4 0.00 0.00 0.00 72
20260510060506 13 183 0.0 6.4 0.00 0.00 0.00 72
20260510060406 13 183 0.0 6.4 0.00 0.00 0.00 72
20260510060306 13 180 3.2 6.4 0.00 0.00 0.00 72
20260510060206 13 182 3.2 6.4 0.00 0.00 0.00 72
20260510060106 13 173 3.2 8.0 0.00 0.00 0.00 72
20260510060006 13 173 3.2 8.0 0.00 0.00 0.00 72
20260510055906 13 172 3.2 8.0 0.00 0.00 0.00 72
20260510055806 13 179 3.2 8.0 0.00 0.00 0.00 72
20260510055706 13 175 4.8 8.0 0.00 0.00 0.00 72
20260510055606 13 186 4.8 8.0 0.00 0.00 0.00 72
20260510055506 13 184 4.8 8.0 0.00 0.00 0.00 72
20260510055406 13 176 3.2 8.0 0.00 0.00 0.00 73
20260510055307 13 186 3.2 8.0 0.00 0.00 0.00 73
20260510055206 13 182 4.8 8.0 0.00 0.00 0.00 73
20260510055106 13 171 4.8 8.0 0.00 0.00 0.00 73
20260510055006 13 172 3.2 8.0 0.00 0.00 0.00 73
20260510054906 13 187 3.2 8.0 0.00 0.00 0.00 73
20260510054806 13 181 4.8 8.0 0.00 0.00 0.00 74
20260510054706 12 180 4.8 8.0 0.00 0.00 0.00 73
20260510054606 12 169 4.8 8.0 0.00 0.00 0.00 73
20260510054506 12 181 6.4 8.0 0.00 0.00 0.00 73
20260510054406 12 168 4.8 8.0 0.00 0.00 0.00 73
20260510054306 12 186 3.2 8.0 0.00 0.00 0.00 73
20260510054206 12 173 4.8 8.0 0.00 0.00 0.00 74
20260510054106 12 185 6.4 8.0 0.00 0.00 0.00 74
20260510054006 12 167 6.4 8.0 0.00 0.00 0.00 73
20260510053906 12 175 4.8 8.0 0.00 0.00 0.00 74
20260510053806 12 176 4.8 8.0 0.00 0.00 0.00 74
20260510053706 12 184 4.8 8.0 0.00 0.00 0.00 74
20260510053606 12 184 4.8 8.0 0.00 0.00 0.00 74
20260510053506 12 175 3.2 8.0 0.00 0.00 0.00 74
20260510053406 12 186 4.8 8.0 0.00 0.00 0.00 74
20260510053306 12 174 3.2 8.0 0.00 0.00 0.00 74
20260510053206 12 184 3.2 8.0 0.00 0.00 0.00 74
20260510053106 12 173 4.8 8.0 0.00 0.00 0.00 74
20260510053006 12 170 4.8 8.0 0.00 0.00 0.00 75
20260510052906 12 185 4.8 8.0 0.00 0.00 0.00 74
20260510052806 12 161 4.8 8.0 0.00 0.00 0.00 74
20260510052706 12 178 6.4 8.0 0.00 0.00 0.00 74
20260510052606 12 183 4.8 8.0 0.00 0.00 0.00 74
20260510052506 12 173 3.2 8.0 0.00 0.00 0.00 74
20260510052406 12 166 3.2 8.0 0.00 0.00 0.00 74
20260510052307 12 175 4.8 8.0 0.00 0.00 0.00 75
20260510052206 12 174 3.2 8.0 0.00 0.00 0.00 74
20260510052106 12 183 3.2 8.0 0.00 0.00 0.00 74
20260510052006 12 182 3.2 6.4 0.00 0.00 0.00 75
20260510051906 12 175 3.2 6.4 0.00 0.00 0.00 74
20260510051806 12 174 3.2 6.4 0.00 0.00 0.00 75
20260510051706 12 177 1.6 6.4 0.00 0.00 0.00 75
20260510051606 12 185 3.2 11.3 0.00 0.00 0.00 75
20260510051506 12 181 3.2 11.3 0.00 0.00 0.00 75
20260510051406 12 169 3.2 11.3 0.00 0.00 0.00 75
20260510051306 12 187 1.6 11.3 0.00 0.00 0.00 75
20260510051206 12 181 4.8 11.3 0.00 0.00 0.00 75
20260510051106 12 184 4.8 8.0 0.00 0.00 0.00 75
20260510051006 12 183 3.2 8.0 0.00 0.00 0.00 76
20260510050906 12 186 3.2 8.0 0.00 0.00 0.00 76
20260510050806 12 179 1.6 6.4 0.00 0.00 0.00 76
20260510050706 12 183 1.6 6.4 0.00 0.00 0.00 76
20260510050606 12 187 3.2 6.4 0.00 0.00 0.00 76
20260510050506 12 187 3.2 6.4 0.00 0.00 0.00 76
20260510050406 12 175 3.2 6.4 0.00 0.00 0.00 76
20260510050306 12 179 3.2 6.4 0.00 0.00 0.00 76
20260510050206 12 174 3.2 6.4 0.00 0.00 0.00 76
20260510050106 12 169 1.6 6.4 0.00 0.00 0.00 76
20260510050006 12 179 3.2 6.4 0.00 0.00 0.00 76
20260510045906 12 178 3.2 6.4 0.00 0.00 0.00 76
20260510045806 12 176 1.6 6.4 0.00 0.00 0.00 76
20260510045706 12 173 1.6 6.4 0.00 0.00 0.00 76
20260510045606 12 173 1.6 6.4 0.00 0.00 0.00 76
20260510045506 12 186 1.6 6.4 0.00 0.00 0.00 76
20260510045406 12 184 1.6 6.4 0.00 0.00 0.00 76
20260510045306 12 186 1.6 6.4 0.00 0.00 0.00 76
20260510045206 12 175 3.2 6.4 0.00 0.00 0.00 75
20260510045106 12 184 1.6 6.4 0.00 0.00 0.00 75
20260510045006 12 181 1.6 6.4 0.00 0.00 0.00 75
20260510044906 12 174 1.6 6.4 0.00 0.00 0.00 75
20260510044806 12 186 1.6 6.4 0.00 0.00 0.00 75
20260510044706 12 185 1.6 6.4 0.00 0.00 0.00 74
20260510044606 12 170 3.2 6.4 0.00 0.00 0.00 74
20260510044506 12 173 3.2 6.4 0.00 0.00 0.00 74
20260510044406 12 169 3.2 6.4 0.00 0.00 0.00 75
20260510044306 12 175 1.6 6.4 0.00 0.00 0.00 74
20260510044206 12 180 1.6 6.4 0.00 0.00 0.00 74
20260510044106 12 187 1.6 6.4 0.00 0.00 0.00 75
20260510044006 12 173 1.6 6.4 0.00 0.00 0.00 74
20260510043906 12 185 1.6 3.2 0.00 0.00 0.00 74
20260510043806 12 181 0.0 3.2 0.00 0.00 0.00 74
20260510043706 12 185 0.0 3.2 0.00 0.00 0.00 74
20260510043606 12 182 0.0 3.2 0.00 0.00 0.00 74
20260510043506 12 181 0.0 1.6 0.00 0.00 0.00 74
20260510043406 12 183 0.0 1.6 0.00 0.00 0.00 74
20260510043306 12 182 0.0 1.6 0.00 0.00 0.00 74
20260510043206 12 174 0.0 1.6 0.00 0.00 0.00 74
20260510043106 12 183 0.0 1.6 0.00 0.00 0.00 74
20260510043006 12 183 0.0 1.6 0.00 0.00 0.00 74
20260510042906 12 183 0.0 3.2 0.00 0.00 0.00 75
20260510042806 12 174 0.0 3.2 0.00 0.00 0.00 75
20260510042706 12 178 0.0 3.2 0.00 0.00 0.00 75
20260510042606 12 182 0.0 3.2 0.00 0.00 0.00 75
20260510042506 12 183 0.0 3.2 0.00 0.00 0.00 75
20260510042406 12 179 1.6 3.2 0.00 0.00 0.00 75
20260510042307 12 177 0.0 3.2 0.00 0.00 0.00 76
20260510042206 12 179 0.0 3.2 0.00 0.00 0.00 76
20260510042106 12 176 0.0 3.2 0.00 0.00 0.00 76
20260510042006 12 186 0.0 3.2 0.00 0.00 0.00 76
20260510041906 12 173 0.0 3.2 0.00 0.00 0.00 76
20260510041806 12 182 0.0 3.2 0.00 0.00 0.00 76
20260510041706 12 187 0.0 3.2 0.00 0.00 0.00 76
20260510041606 12 179 0.0 3.2 0.00 0.00 0.00 75
20260510041506 12 172 0.0 3.2 0.00 0.00 0.00 75
20260510041406 12 181 0.0 3.2 0.00 0.00 0.00 75
20260510041306 12 179 0.0 3.2 0.00 0.00 0.00 75
20260510041206 12 181 1.6 3.2 0.00 0.00 0.00 75
20260510041106 12 179 0.0 3.2 0.00 0.00 0.00 75
20260510041006 12 181 1.6 3.2 0.00 0.00 0.00 75
20260510040906 12 172 0.0 3.2 0.00 0.00 0.00 75
20260510040806 12 175 0.0 1.6 0.00 0.00 0.00 75
20260510040706 12 176 0.0 1.6 0.00 0.00 0.00 75
20260510040606 12 172 0.0 1.6 0.00 0.00 0.00 75
20260510040506 12 175 0.0 1.6 0.00 0.00 0.00 75
20260510040406 12 175 0.0 1.6 0.00 0.00 0.00 75
20260510040306 12 171 0.0 1.6 0.00 0.00 0.00 76
20260510040206 12 171 0.0 1.6 0.00 0.00 0.00 76
20260510040106 12 171 0.0 1.6 0.00 0.00 0.00 76
20260510040006 12 171 0.0 1.6 0.00 0.00 0.00 76
20260510035906 12 171 0.0 1.6 0.00 0.00 0.00 76
20260510035806 12 171 0.0 1.6 0.00 0.00 0.00 76
20260510035706 12 171 0.0 1.6 0.00 0.00 0.00 76
20260510035606 12 171 0.0 1.6 0.00 0.00 0.00 76
20260510035506 12 163 0.0 1.6 0.00 0.00 0.00 76
20260510035406 12 163 0.0 1.6 0.00 0.00 0.00 76
20260510035306 12 163 0.0 1.6 0.00 0.00 0.00 76
20260510035206 12 163 0.0 1.6 0.00 0.00 0.00 76
20260510035106 12 163 0.0 1.6 0.00 0.00 0.00 76
20260510035006 12 164 0.0 1.6 0.00 0.00 0.00 76
20260510034906 12 165 0.0 1.6 0.00 0.00 0.00 76
20260510034806 12 178 0.0 3.2 0.00 0.00 0.00 76
20260510034706 12 178 0.0 3.2 0.00 0.00 0.00 76
20260510034606 12 179 0.0 3.2 0.00 0.00 0.00 76
20260510034506 12 177 0.0 3.2 0.00 0.00 0.00 76
20260510034406 12 176 1.6 3.2 0.00 0.00 0.00 75
20260510034306 12 176 0.0 3.2 0.00 0.00 0.00 75
20260510034206 12 176 0.0 3.2 0.00 0.00 0.00 75
20260510034106 12 176 0.0 3.2 0.00 0.00 0.00 75
20260510034006 12 176 0.0 3.2 0.00 0.00 0.00 75
20260510033906 12 174 0.0 3.2 0.00 0.00 0.00 74
20260510033806 12 173 0.0 3.2 0.00 0.00 0.00 75
20260510033706 12 176 0.0 3.2 0.00 0.00 0.00 75
20260510033606 12 173 0.0 3.2 0.00 0.00 0.00 75
20260510033506 12 178 0.0 3.2 0.00 0.00 0.00 75
20260510033406 12 178 0.0 3.2 0.00 0.00 0.00 75
20260510033306 12 177 0.0 3.2 0.00 0.00 0.00 75
20260510033206 12 175 0.0 6.4 0.00 0.00 0.00 75
20260510033106 12 174 1.6 6.4 0.00 0.00 0.00 75
20260510033006 12 179 1.6 6.4 0.00 0.00 0.00 75
20260510032906 12 181 1.6 6.4 0.00 0.00 0.00 75
20260510032806 12 183 3.2 6.4 0.00 0.00 0.00 75
20260510032706 12 185 3.2 6.4 0.00 0.00 0.00 75
20260510032606 12 176 1.6 8.0 0.00 0.00 0.00 75
20260510032506 12 175 3.2 8.0 0.00 0.00 0.00 75
20260510032406 12 180 3.2 8.0 0.00 0.00 0.00 75
20260510032306 12 178 3.2 8.0 0.00 0.00 0.00 76
20260510032206 12 179 3.2 8.0 0.00 0.00 0.00 76
20260510032106 12 173 3.2 6.4 0.00 0.00 0.00 76
20260510032006 12 181 3.2 6.4 0.00 0.00 0.00 75
20260510031906 12 176 4.8 6.4 0.00 0.00 0.00 75
20260510031806 12 178 3.2 6.4 0.00 0.00 0.00 75
20260510031706 12 187 3.2 6.4 0.00 0.00 0.00 74
20260510031606 12 175 3.2 6.4 0.00 0.00 0.00 74
20260510031506 12 171 3.2 6.4 0.00 0.00 0.00 74
20260510031406 12 179 1.6 3.2 0.00 0.00 0.00 74
20260510031306 12 180 0.0 3.2 0.00 0.00 0.00 74
20260510031206 12 181 0.0 3.2 0.00 0.00 0.00 74
20260510031106 13 180 0.0 3.2 0.00 0.00 0.00 74
20260510031006 13 182 0.0 3.2 0.00 0.00 0.00 74
20260510030906 13 183 0.0 1.6 0.00 0.00 0.00 74
20260510030806 13 180 0.0 1.6 0.00 0.00 0.00 74
20260510030706 13 181 0.0 1.6 0.00 0.00 0.00 74
20260510030606 13 181 0.0 0.0 0.00 0.00 0.00 74
20260510030506 13 181 0.0 1.6 0.00 0.00 0.00 74
20260510030406 13 181 0.0 1.6 0.00 0.00 0.00 74
20260510030306 13 181 0.0 1.6 0.00 0.00 0.00 74
20260510030206 13 181 0.0 1.6 0.00 0.00 0.00 74
20260510030106 13 180 0.0 1.6 0.00 0.00 0.00 74
20260510030006 13 181 0.0 1.6 0.00 0.00 0.00 74
20260510025906 13 181 0.0 1.6 0.00 0.00 0.00 74
20260510025806 13 181 0.0 1.6 0.00 0.00 0.00 74
20260510025706 13 181 0.0 3.2 0.00 0.00 0.00 73
20260510025606 13 180 0.0 3.2 0.00 0.00 0.00 74
20260510025506 13 181 0.0 3.2 0.00 0.00 0.00 74
20260510025406 13 180 0.0 3.2 0.00 0.00 0.00 74
20260510025306 13 180 0.0 3.2 0.00 0.00 0.00 74
20260510025206 13 180 0.0 3.2 0.00 0.00 0.00 74
20260510025106 13 180 0.0 1.6 0.00 0.00 0.00 74
20260510025006 13 173 0.0 3.2 0.00 0.00 0.00 74
20260510024906 13 177 0.0 3.2 0.00 0.00 0.00 74
20260510024806 13 176 0.0 3.2 0.00 0.00 0.00 73
20260510024706 13 172 0.0 3.2 0.00 0.00 0.00 73
20260510024606 13 176 0.0 3.2 0.00 0.00 0.00 73
20260510024506 13 176 0.0 3.2 0.00 0.00 0.00 73
20260510024406 13 175 0.0 3.2 0.00 0.00 0.00 73
20260510024306 13 176 0.0 3.2 0.00 0.00 0.00 73
20260510024206 13 175 0.0 3.2 0.00 0.00 0.00 73
20260510024106 13 175 0.0 3.2 0.00 0.00 0.00 74
20260510024006 13 173 0.0 3.2 0.00 0.00 0.00 73
20260510023906 13 175 0.0 3.2 0.00 0.00 0.00 73
20260510023806 13 175 0.0 3.2 0.00 0.00 0.00 73
20260510023706 13 165 0.0 3.2 0.00 0.00 0.00 73
20260510023606 13 186 0.0 3.2 0.00 0.00 0.00 73
20260510023506 13 179 1.6 3.2 0.00 0.00 0.00 73
20260510023406 13 189 0.0 3.2 0.00 0.00 0.00 73
20260510023306 13 176 1.6 3.2 0.00 0.00 0.00 72
20260510023206 13 176 1.6 3.2 0.00 0.00 0.00 72
20260510023106 13 179 1.6 3.2 0.00 0.00 0.00 72
20260510023006 13 187 0.0 6.4 0.00 0.00 0.00 71
20260510022906 13 184 0.0 6.4 0.00 0.00 0.00 72
20260510022806 13 177 1.6 6.4 0.00 0.00 0.00 72
20260510022706 13 185 1.6 6.4 0.00 0.00 0.00 72
20260510022606 13 179 3.2 6.4 0.00 0.00 0.00 73
20260510022506 13 179 1.6 3.2 0.00 0.00 0.00 73
20260510022406 13 183 1.6 3.2 0.00 0.00 0.00 73
20260510022307 13 187 0.0 3.2 0.00 0.00 0.00 73
20260510022206 13 179 0.0 1.6 0.00 0.00 0.00 73
20260510022106 13 177 0.0 1.6 0.00 0.00 0.00 73
20260510022006 13 178 0.0 1.6 0.00 0.00 0.00 73
20260510021906 13 178 0.0 1.6 0.00 0.00 0.00 73
20260510021806 13 178 0.0 1.6 0.00 0.00 0.00 73
20260510021706 13 178 0.0 1.6 0.00 0.00 0.00 73
20260510021606 13 176 0.0 1.6 0.00 0.00 0.00 72
20260510021506 13 178 0.0 1.6 0.00 0.00 0.00 72
20260510021406 13 179 0.0 1.6 0.00 0.00 0.00 72
20260510021306 13 178 0.0 1.6 0.00 0.00 0.00 72
20260510021206 13 179 0.0 1.6 0.00 0.00 0.00 72
20260510021106 13 179 0.0 1.6 0.00 0.00 0.00 72
20260510021006 13 178 0.0 1.6 0.00 0.00 0.00 72
20260510020906 13 179 0.0 1.6 0.00 0.00 0.00 72
20260510020806 13 176 0.0 1.6 0.00 0.00 0.00 71
20260510020706 13 178 0.0 1.6 0.00 0.00 0.00 71
20260510020606 13 174 0.0 1.6 0.00 0.00 0.00 71
20260510020506 13 176 0.0 1.6 0.00 0.00 0.00 71
20260510020406 13 176 0.0 3.2 0.00 0.00 0.00 72
20260510020306 13 177 0.0 3.2 0.00 0.00 0.00 71
20260510020206 13 177 0.0 3.2 0.00 0.00 0.00 71
20260510020106 13 177 0.0 3.2 0.00 0.00 0.00 71
20260510020006 13 176 0.0 3.2 0.00 0.00 0.00 71
20260510015906 13 185 0.0 3.2 0.00 0.00 0.00 71
20260510015806 13 182 0.0 3.2 0.00 0.00 0.00 71
20260510015706 13 183 0.0 3.2 0.00 0.00 0.00 71
20260510015606 13 174 0.0 3.2 0.00 0.00 0.00 71
20260510015506 13 177 0.0 3.2 0.00 0.00 0.00 71
20260510015406 13 174 0.0 3.2 0.00 0.00 0.00 71
20260510015306 13 187 0.0 3.2 0.00 0.00 0.00 71
20260510015206 13 187 1.6 3.2 0.00 0.00 0.00 71
20260510015106 13 182 1.6 6.4 0.00 0.00 0.00 71
20260510015006 13 181 1.6 6.4 0.00 0.00 0.00 71
20260510014906 13 176 1.6 6.4 0.00 0.00 0.00 71
20260510014806 13 172 1.6 6.4 0.00 0.00 0.00 71
20260510014706 13 175 3.2 6.4 0.00 0.00 0.00 71
20260510014606 13 173 3.2 6.4 0.00 0.00 0.00 71
20260510014506 13 179 1.6 3.2 0.00 0.00 0.00 71
20260510014406 13 185 1.6 3.2 0.00 0.00 0.00 71
20260510014306 13 176 0.0 3.2 0.00 0.00 0.00 70
20260510014206 13 178 0.0 3.2 0.00 0.00 0.00 71
20260510014106 13 179 0.0 3.2 0.00 0.00 0.00 71
20260510014006 13 180 0.0 3.2 0.00 0.00 0.00 71
20260510013906 13 180 1.6 3.2 0.00 0.00 0.00 71
20260510013806 13 178 1.6 3.2 0.00 0.00 0.00 71
20260510013706 13 177 0.0 3.2 0.00 0.00 0.00 71
20260510013606 13 176 0.0 3.2 0.00 0.00 0.00 71
20260510013506 13 176 0.0 3.2 0.00 0.00 0.00 71
20260510013406 13 177 0.0 3.2 0.00 0.00 0.00 72
20260510013306 13 177 1.6 3.2 0.00 0.00 0.00 72
20260510013206 13 181 0.0 3.2 0.00 0.00 0.00 72
20260510013106 13 178 0.0 1.6 0.00 0.00 0.00 71
20260510013006 13 174 0.0 1.6 0.00 0.00 0.00 71
20260510012906 13 178 0.0 1.6 0.00 0.00 0.00 71
20260510012806 13 177 0.0 1.6 0.00 0.00 0.00 71
20260510012706 13 177 0.0 1.6 0.00 0.00 0.00 71
20260510012606 13 178 0.0 1.6 0.00 0.00 0.00 71
20260510012506 13 178 0.0 1.6 0.00 0.00 0.00 71
20260510012406 13 176 0.0 1.6 0.00 0.00 0.00 71
20260510012307 13 175 0.0 1.6 0.00 0.00 0.00 71
20260510012206 13 177 0.0 3.2 0.00 0.00 0.00 71
20260510012106 13 177 0.0 3.2 0.00 0.00 0.00 71
20260510012006 13 179 0.0 3.2 0.00 0.00 0.00 71
20260510011906 13 177 0.0 3.2 0.00 0.00 0.00 71
20260510011806 13 179 0.0 3.2 0.00 0.00 0.00 71
20260510011706 13 175 0.0 3.2 0.00 0.00 0.00 71
20260510011606 13 175 0.0 6.4 0.00 0.00 0.00 71
20260510011506 13 179 0.0 6.4 0.00 0.00 0.00 71
20260510011406 13 178 1.6 6.4 0.00 0.00 0.00 71
20260510011306 13 170 1.6 6.4 0.00 0.00 0.00 70
20260510011206 13 175 1.6 6.4 0.00 0.00 0.00 70
20260510011106 13 174 3.2 6.4 0.00 0.00 0.00 71
20260510011006 13 177 3.2 6.4 0.00 0.00 0.00 70
20260510010906 13 179 3.2 6.4 0.00 0.00 0.00 70
20260510010806 13 179 3.2 6.4 0.00 0.00 0.00 70
20260510010706 13 174 4.8 6.4 0.00 0.00 0.00 70
20260510010606 13 182 1.6 6.4 0.00 0.00 0.00 70
20260510010506 14 178 1.6 3.2 0.00 0.00 0.00 70
20260510010406 14 178 0.0 3.2 0.00 0.00 0.00 71
20260510010306 14 177 0.0 1.6 0.00 0.00 0.00 71
20260510010206 14 178 0.0 1.6 0.00 0.00 0.00 71
20260510010106 14 179 0.0 1.6 0.00 0.00 0.00 71
20260510010006 14 175 0.0 1.6 0.00 0.00 0.00 70
20260510005906 14 177 0.0 1.6 0.00 0.00 0.00 70
20260510005806 14 177 0.0 1.6 0.00 0.00 0.00 70
20260510005706 14 176 0.0 1.6 0.00 0.00 0.00 69
20260510005606 14 178 0.0 1.6 0.00 0.00 0.00 70
20260510005506 14 177 0.0 1.6 0.00 0.00 0.00 69
20260510005406 14 176 0.0 1.6 0.00 0.00 0.00 69
20260510005306 14 174 0.0 1.6 0.00 0.00 0.00 68
20260510005206 14 178 0.0 1.6 0.00 0.00 0.00 68
20260510005106 14 176 0.0 1.6 0.00 0.00 0.00 68
20260510005006 14 176 0.0 1.6 0.00 0.00 0.00 68
20260510004906 14 178 0.0 1.6 0.00 0.00 0.00 68
20260510004806 14 177 0.0 1.6 0.00 0.00 0.00 68
20260510004706 14 177 0.0 1.6 0.00 0.00 0.00 68
20260510004606 14 177 0.0 1.6 0.00 0.00 0.00 68
20260510004506 14 177 0.0 1.6 0.00 0.00 0.00 68
20260510004406 14 179 0.0 3.2 0.00 0.00 0.00 68
20260510004306 15 177 0.0 3.2 0.00 0.00 0.00 67
20260510004206 14 176 0.0 3.2 0.00 0.00 0.00 67
20260510004106 15 177 0.0 3.2 0.00 0.00 0.00 67
20260510004006 15 178 0.0 3.2 0.00 0.00 0.00 66
20260510003906 14 182 0.0 3.2 0.00 0.00 0.00 66
20260510003806 15 177 0.0 3.2 0.00 0.00 0.00 66
20260510003706 15 177 1.6 3.2 0.00 0.00 0.00 66
20260510003606 15 178 0.0 3.2 0.00 0.00 0.00 66
20260510003506 15 174 0.0 3.2 0.00 0.00 0.00 66
20260510003406 15 177 0.0 3.2 0.00 0.00 0.00 66
20260510003306 15 176 0.0 3.2 0.00 0.00 0.00 66
20260510003206 15 179 0.0 3.2 0.00 0.00 0.00 66
20260510003106 15 179 1.6 3.2 0.00 0.00 0.00 66
20260510003006 15 184 0.0 3.2 0.00 0.00 0.00 66
20260510002906 15 188 0.0 3.2 0.00 0.00 0.00 67
20260510002806 15 176 1.6 3.2 0.00 0.00 0.00 66
20260510002706 15 177 0.0 3.2 0.00 0.00 0.00 66
20260510002606 14 176 0.0 3.2 0.00 0.00 0.00 67
20260510002506 14 174 0.0 3.2 0.00 0.00 0.00 67
20260510002406 14 183 0.0 3.2 0.00 0.00 0.00 67
20260510002307 14 187 0.0 3.2 0.00 0.00 0.00 67
20260510002206 14 179 0.0 3.2 0.00 0.00 0.00 67
20260510002106 14 184 0.0 3.2 0.00 0.00 0.00 67
20260510002006 14 185 0.0 3.2 0.00 0.00 0.00 67
20260510001906 14 182 0.0 1.6 0.00 0.00 0.00 67
20260510001806 14 182 0.0 1.6 0.00 0.00 0.00 67
20260510001706 14 176 0.0 1.6 0.00 0.00 0.00 67
20260510001606 14 176 0.0 1.6 0.00 0.00 0.00 67
20260510001506 14 183 0.0 1.6 0.00 0.00 0.00 67
20260510001406 14 179 0.0 1.6 0.00 0.00 0.00 67
20260510001306 14 169 0.0 1.6 0.00 0.00 0.00 67
20260510001206 14 173 0.0 1.6 0.00 0.00 0.00 67
20260510001106 14 186 0.0 1.6 0.00 0.00 0.00 67
20260510001006 14 184 0.0 3.2 0.00 0.00 0.00 68
20260510000906 14 187 0.0 3.2 0.00 0.00 0.00 68
20260510000806 14 186 0.0 6.4 0.00 0.00 0.00 68
20260510000706 14 190 0.0 6.4 0.00 0.00 0.00 68
20260510000606 14 187 0.0 6.4 0.00 0.00 0.00 68
20260510000506 14 185 0.0 6.4 0.00 0.00 0.00 68
20260510000406 14 174 1.6 6.4 0.00 0.00 0.00 68
20260510000306 14 178 0.0 3.2 0.00 0.00 0.00 68
20260510000206 14 174 0.0 3.2 0.00 0.00 0.00 68
20260510000106 14 178 0.0 3.2 0.00 0.00 0.00 68
20260510000006 14 187 1.6 3.2 0.00 0.00 0.00 68
20260509235906 14 185 0.0 3.2 0.00 0.00 0.00 69
20260509235806 14 186 0.0 3.2 0.00 0.00 0.00 69
20260509235706 14 186 0.0 3.2 0.00 0.00 0.00 69
20260509235606 14 179 0.0 3.2 0.00 0.00 0.00 69
20260509235506 14 171 0.0 3.2 0.00 0.00 0.00 69
20260509235406 14 175 0.0 3.2 0.00 0.00 0.00 69
20260509235307 14 171 0.0 6.4 0.00 0.00 0.00 68
20260509235206 14 169 0.0 6.4 0.00 0.00 0.00 68
20260509235106 14 168 1.6 6.4 0.00 0.00 0.00 69
20260509235006 14 176 1.6 6.4 0.00 0.00 0.00 69
20260509234906 14 174 3.2 6.4 0.00 0.00 0.00 68
20260509234806 14 176 1.6 6.4 0.00 0.00 0.00 68
20260509234706 14 186 1.6 3.2 0.00 0.00 0.00 68
20260509234606 14 169 1.6 3.2 0.00 0.00 0.00 68
20260509234506 14 185 0.0 3.2 0.00 0.00 0.00 68
20260509234406 14 185 0.0 3.2 0.00 0.00 0.00 68
20260509234306 14 176 1.6 3.2 0.00 0.00 0.00 68
20260509234206 14 183 0.0 3.2 0.00 0.00 0.00 68
20260509234106 14 176 0.0 6.4 0.00 0.00 0.00 68
20260509234006 14 177 1.6 6.4 0.00 0.00 0.00 68
20260509233906 14 173 1.6 6.4 0.00 0.00 0.00 68
20260509233806 14 175 1.6 6.4 0.00 0.00 0.00 68
20260509233706 14 176 3.2 6.4 0.00 0.00 0.00 67
20260509233606 14 185 1.6 6.4 0.00 0.00 0.00 67
20260509233506 14 173 3.2 6.4 0.00 0.00 0.00 67
20260509233406 14 179 3.2 6.4 0.00 0.00 0.00 67
20260509233306 14 177 4.8 6.4 0.00 0.00 0.00 67
20260509233206 14 176 3.2 6.4 0.00 0.00 0.00 67
20260509233106 14 179 1.6 6.4 0.00 0.00 0.00 67
20260509233006 14 178 1.6 6.4 0.00 0.00 0.00 67
20260509232906 14 175 1.6 6.4 0.00 0.00 0.00 67
20260509232806 14 174 1.6 6.4 0.00 0.00 0.00 67
20260509232706 14 178 1.6 6.4 0.00 0.00 0.00 67
20260509232606 14 176 1.6 6.4 0.00 0.00 0.00 67
20260509232506 14 176 1.6 6.4 0.00 0.00 0.00 66
20260509232406 14 186 1.6 3.2 0.00 0.00 0.00 67
20260509232306 14 178 1.6 6.4 0.00 0.00 0.00 66
20260509232206 14 176 1.6 6.4 0.00 0.00 0.00 67
20260509232106 14 185 1.6 6.4 0.00 0.00 0.00 66
20260509232006 14 175 3.2 6.4 0.00 0.00 0.00 67
20260509231906 14 172 3.2 6.4 0.00 0.00 0.00 66
20260509231806 14 179 3.2 6.4 0.00 0.00 0.00 67
20260509231706 14 185 1.6 6.4 0.00 0.00 0.00 66
20260509231606 14 183 1.6 6.4 0.00 0.00 0.00 67
20260509231506 14 179 3.2 6.4 0.00 0.00 0.00 66
20260509231406 14 186 3.2 6.4 0.00 0.00 0.00 66
20260509231306 14 175 3.2 6.4 0.00 0.00 0.00 66
20260509231206 14 185 3.2 6.4 0.00 0.00 0.00 67
20260509231106 14 176 4.8 6.4 0.00 0.00 0.00 67
20260509231006 14 175 4.8 6.4 0.00 0.00 0.00 66
20260509230906 14 169 3.2 6.4 0.00 0.00 0.00 66
20260509230806 14 184 3.2 3.2 0.00 0.00 0.00 66
20260509230706 14 183 1.6 3.2 0.00 0.00 0.00 67
20260509230606 14 177 1.6 8.0 0.00 0.00 0.00 66
20260509230506 14 174 0.0 8.0 0.00 0.00 0.00 67
20260509230406 14 177 0.0 8.0 0.00 0.00 0.00 67
20260509230306 14 172 0.0 8.0 0.00 0.00 0.00 67
20260509230206 14 186 3.2 8.0 0.00 0.00 0.00 67
20260509230106 14 182 3.2 6.4 0.00 0.00 0.00 67
20260509230006 14 187 3.2 6.4 0.00 0.00 0.00 68
20260509225906 14 173 3.2 6.4 0.00 0.00 0.00 68
20260509225806 14 172 3.2 6.4 0.00 0.00 0.00 68
20260509225706 14 177 3.2 6.4 0.00 0.00 0.00 69
20260509225606 14 174 3.2 6.4 0.00 0.00 0.00 69
20260509225506 14 183 3.2 6.4 0.00 0.00 0.00 69
20260509225406 14 172 3.2 6.4 0.00 0.00 0.00 69
20260509225306 14 173 3.2 8.0 0.00 0.00 0.00 69
20260509225206 14 173 3.2 8.0 0.00 0.00 0.00 69
20260509225106 14 185 3.2 8.0 0.00 0.00 0.00 69
20260509225006 14 174 4.8 8.0 0.00 0.00 0.00 69
20260509224906 14 173 4.8 8.0 0.00 0.00 0.00 69
20260509224806 14 186 3.2 6.4 0.00 0.00 0.00 69
20260509224706 14 173 3.2 6.4 0.00 0.00 0.00 69
20260509224606 14 177 4.8 6.4 0.00 0.00 0.00 69
20260509224506 14 186 3.2 6.4 0.00 0.00 0.00 69
20260509224406 14 185 3.2 6.4 0.00 0.00 0.00 69
20260509224306 14 187 3.2 6.4 0.00 0.00 0.00 69
20260509224206 14 182 3.2 6.4 0.00 0.00 0.00 68
20260509224106 14 172 3.2 6.4 0.00 0.00 0.00 69
20260509224006 14 180 4.8 6.4 0.00 0.00 0.00 68
20260509223906 14 173 3.2 6.4 0.00 0.00 0.00 68
20260509223806 14 180 1.6 6.4 0.00 0.00 0.00 68
20260509223706 14 179 3.2 6.4 0.00 0.00 0.00 68
20260509223606 14 185 1.6 6.4 0.00 0.00 0.00 67
20260509223506 14 185 1.6 6.4 0.00 0.00 0.00 67
20260509223406 15 173 1.6 6.4 0.00 0.00 0.00 67
20260509223306 15 179 1.6 6.4 0.00 0.00 0.00 67
20260509223206 15 174 1.6 6.4 0.00 0.00 0.00 67
20260509223106 15 172 3.2 6.4 0.00 0.00 0.00 67
20260509223006 15 180 3.2 6.4 0.00 0.00 0.00 66
20260509222906 15 176 1.6 3.2 0.00 0.00 0.00 66
20260509222806 15 172 0.0 3.2 0.00 0.00 0.00 65
20260509222706 15 173 0.0 1.6 0.00 0.00 0.00 64
20260509222606 15 176 0.0 1.6 0.00 0.00 0.00 65
20260509222506 15 175 0.0 1.6 0.00 0.00 0.00 64
20260509222406 15 174 0.0 3.2 0.00 0.00 0.00 65
20260509222307 15 174 0.0 3.2 0.00 0.00 0.00 66
20260509222206 15 174 0.0 3.2 0.00 0.00 0.00 66
20260509222106 15 175 0.0 3.2 0.00 0.00 0.00 67
20260509222006 15 175 0.0 3.2 0.00 0.00 0.00 67
20260509221906 14 168 0.0 3.2 0.00 0.00 0.00 68
20260509221806 14 167 0.0 3.2 0.00 0.00 0.00 69
20260509221706 14 167 0.0 3.2 0.00 0.00 0.00 70
20260509221606 14 167 0.0 3.2 0.00 0.00 0.00 70
20260509221506 14 167 1.6 3.2 0.00 0.00 0.00 70
20260509221406 14 166 0.0 3.2 0.00 0.00 0.00 70
20260509221306 14 164 0.0 3.2 0.00 0.00 0.00 69
20260509221206 14 164 0.0 3.2 0.00 0.00 0.00 68
20260509221106 15 164 0.0 3.2 0.00 0.00 0.00 68
20260509221006 15 163 0.0 1.6 0.00 0.00 0.00 68
20260509220906 15 152 0.0 1.6 0.00 0.00 0.00 68
20260509220806 15 153 0.0 1.6 0.00 0.00 0.00 68
20260509220706 15 152 0.0 1.6 0.00 0.00 0.00 68
20260509220606 15 152 0.0 1.6 0.00 0.00 0.00 69
20260509220506 15 153 0.0 1.6 0.00 0.00 0.00 68
20260509220406 15 153 0.0 1.6 0.00 0.00 0.00 68
20260509220306 15 153 0.0 1.6 0.00 0.00 0.00 68
20260509220206 15 152 0.0 1.6 0.00 0.00 0.00 68
20260509220106 15 152 0.0 1.6 0.00 0.00 0.00 68
20260509220006 15 149 0.0 1.6 0.00 0.00 0.00 67
20260509215906 15 148 0.0 1.6 0.00 0.00 0.00 68
20260509215806 15 149 0.0 1.6 0.00 0.00 0.00 68
20260509215706 15 148 0.0 1.6 0.00 0.00 0.00 68
20260509215606 15 149 0.0 1.6 0.00 0.00 0.00 68
20260509215506 15 148 0.0 1.6 0.00 0.00 0.00 68
20260509215406 15 148 0.0 1.6 0.00 0.00 0.00 68
20260509215306 15 148 0.0 1.6 0.00 0.00 0.00 68
20260509215206 15 148 0.0 1.6 0.00 0.00 0.00 68
20260509215106 15 148 0.0 1.6 0.00 0.00 0.00 67
20260509215006 15 148 0.0 1.6 0.00 0.00 0.00 67
20260509214906 15 148 0.0 1.6 0.00 0.00 0.00 66
20260509214806 15 149 0.0 1.6 0.00 0.00 0.00 66
20260509214706 15 147 0.0 1.6 0.00 0.00 0.00 65
20260509214606 15 151 0.0 1.6 0.00 0.00 0.00 65
20260509214506 15 151 0.0 1.6 0.00 0.00 0.00 64
20260509214406 15 151 0.0 1.6 0.00 0.00 0.00 64
20260509214306 15 151 0.0 1.6 0.00 0.00 0.00 64
20260509214206 15 151 0.0 1.6 0.00 0.00 0.00 64
20260509214106 15 151 0.0 3.2 0.00 0.00 0.00 64
20260509214006 15 151 0.0 3.2 0.00 0.00 0.00 64
20260509213906 15 151 0.0 3.2 0.00 0.00 0.00 63
20260509213806 15 143 0.0 3.2 0.00 0.00 0.00 63
20260509213706 15 143 0.0 3.2 0.00 0.00 0.00 63
20260509213606 15 153 0.0 3.2 0.00 0.00 0.00 63
20260509213506 15 153 0.0 3.2 0.00 0.00 0.00 63
20260509213406 15 151 0.0 3.2 0.00 0.00 0.00 63
20260509213306 15 138 0.0 3.2 0.00 0.00 0.00 63
20260509213206 15 138 0.0 3.2 0.00 0.00 0.00 63
20260509213106 15 141 0.0 3.2 0.00 0.00 0.00 63
20260509213006 15 157 0.0 3.2 0.00 0.00 0.00 63
20260509212906 15 156 0.0 3.2 0.00 0.00 0.00 62
20260509212806 15 148 0.0 3.2 0.00 0.00 0.00 62
20260509212706 15 136 1.6 3.2 0.00 0.00 0.00 62
20260509212606 15 158 0.0 1.6 0.00 0.00 0.00 62
20260509212506 16 161 0.0 1.6 0.00 0.00 0.00 61
20260509212406 16 161 0.0 1.6 0.00 0.00 0.00 61
20260509212306 16 161 0.0 1.6 0.00 0.00 0.00 61
20260509212206 16 157 0.0 1.6 0.00 0.00 0.00 60
20260509212106 16 152 0.0 3.2 0.00 0.00 0.00 60
20260509212006 16 152 0.0 3.2 0.00 0.00 0.00 59
20260509211906 16 152 0.0 3.2 0.00 0.00 0.00 59
20260509211806 16 152 0.0 3.2 0.00 0.00 0.00 60
20260509211706 16 151 0.0 3.2 0.00 0.00 0.00 60
20260509211606 16 151 0.0 1.6 0.00 0.00 0.00 59
20260509211506 16 152 0.0 1.6 0.00 0.00 0.00 58
20260509211406 16 152 0.0 1.6 0.00 0.00 0.00 59
20260509211306 16 152 0.0 1.6 0.00 0.00 0.00 58
20260509211206 16 152 0.0 1.6 0.00 0.00 0.00 58
20260509211106 16 152 0.0 1.6 0.00 0.00 0.00 58
20260509211006 16 152 0.0 1.6 0.00 0.00 0.00 58
20260509210906 16 152 0.0 1.6 0.00 0.00 0.00 58
20260509210806 16 152 0.0 1.6 0.00 0.00 0.00 58
20260509210706 16 152 0.0 3.2 0.00 0.00 0.00 58
20260509210606 16 152 0.0 3.2 0.00 0.00 0.00 59
20260509210506 16 152 0.0 3.2 0.00 0.00 0.00 58
20260509210406 16 152 0.0 3.2 0.00 0.00 0.00 57
20260509210306 16 151 0.0 3.2 0.00 0.00 0.00 58
20260509210206 16 159 0.0 1.6 0.00 0.00 0.00 57
20260509210106 16 159 0.0 1.6 0.00 0.00 0.00 57
20260509210006 16 159 0.0 1.6 0.00 0.00 0.00 57
20260509205906 16 159 0.0 1.6 0.00 0.00 0.00 57
20260509205806 16 159 0.0 1.6 0.00 0.00 0.00 56
20260509205706 16 160 0.0 1.6 0.00 0.00 0.00 56
20260509205606 16 159 0.0 1.6 0.00 0.00 0.00 56
20260509205506 16 159 0.0 1.6 0.00 0.00 0.00 56
20260509205406 16 159 0.0 1.6 0.00 0.00 0.00 56
20260509205307 16 159 0.0 1.6 0.00 0.00 0.00 55
20260509205206 16 159 0.0 1.6 0.00 0.00 0.00 56
20260509205106 16 160 0.0 1.6 0.00 0.00 0.00 55
20260509205006 16 159 0.0 1.6 0.00 0.00 0.00 55
20260509204906 16 159 0.0 1.6 0.00 0.00 0.00 55
20260509204806 16 160 0.0 1.6 0.00 0.00 0.00 55
20260509204706 17 159 0.0 1.6 0.00 0.00 0.00 55
20260509204606 16 159 0.0 1.6 0.00 0.00 0.00 55
20260509204506 16 159 0.0 1.6 0.00 0.00 0.00 55
20260509204406 16 159 0.0 1.6 0.00 0.00 0.00 55
20260509204306 16 159 0.0 1.6 0.00 0.00 0.00 55
20260509204206 16 159 0.0 1.6 0.00 0.00 0.00 55
20260509204106 16 159 0.0 1.6 0.00 0.00 0.00 54
20260509204006 16 159 0.0 1.6 0.00 0.00 0.00 54
20260509203906 17 159 0.0 1.6 0.00 0.00 0.00 54
20260509203806 17 158 0.0 1.6 0.00 0.00 0.00 54
20260509203706 17 158 0.0 1.6 0.00 0.00 0.00 53
20260509203606 17 158 0.0 1.6 0.00 0.00 0.00 53
20260509203506 17 158 0.0 1.6 0.00 0.00 0.00 53
20260509203406 17 158 0.0 1.6 0.00 0.00 0.00 53
20260509203306 17 158 0.0 1.6 0.00 0.00 0.00 52
20260509203206 17 158 0.0 1.6 0.00 0.00 0.00 52
20260509203106 17 158 0.0 1.6 0.00 0.00 0.00 52
20260509203006 17 169 0.0 1.6 0.00 0.00 0.00 52
20260509202906 17 169 0.0 1.6 0.00 0.00 0.00 52
20260509202806 17 169 0.0 1.6 0.00 0.00 0.00 53
20260509202706 17 169 0.0 1.6 0.00 0.00 0.00 53
20260509202606 17 169 0.0 1.6 0.00 0.00 0.00 53
20260509202506 17 169 0.0 1.6 0.00 0.00 0.00 53
20260509202406 17 169 0.0 1.6 0.00 0.00 0.00 53
20260509202307 17 169 0.0 1.6 0.00 0.00 0.00 53
20260509202206 17 169 0.0 1.6 0.00 0.00 0.00 53
20260509202106 17 169 0.0 1.6 0.00 0.00 0.00 53
20260509202006 17 169 0.0 1.6 0.00 0.00 0.00 53
20260509201906 17 169 0.0 1.6 0.00 0.00 0.00 53
20260509201806 17 169 0.0 1.6 0.00 0.00 0.00 53
20260509201706 17 169 0.0 1.6 0.00 0.00 0.00 53
20260509201606 17 169 0.0 1.6 0.00 0.00 0.00 53
20260509201506 17 169 0.0 1.6 0.00 0.00 0.00 53
20260509201406 17 169 0.0 1.6 0.00 0.00 0.00 53
20260509201306 17 169 0.0 1.6 0.00 0.00 0.00 53
20260509201206 17 169 0.0 1.6 0.00 0.00 0.00 53
20260509201106 17 169 0.0 1.6 0.00 0.00 0.00 53
20260509201006 17 169 0.0 1.6 0.00 0.00 0.00 53
20260509200906 17 169 0.0 1.6 0.00 0.00 0.00 53
20260509200806 17 169 0.0 1.6 0.00 0.00 0.00 54
20260509200706 17 169 0.0 1.6 0.00 0.00 0.00 53
20260509200606 17 169 0.0 1.6 0.00 0.00 0.00 53
20260509200506 17 169 0.0 1.6 0.00 0.00 0.00 53
20260509200406 17 169 0.0 1.6 0.00 0.00 0.00 52
20260509200306 17 169 0.0 1.6 0.00 0.00 0.00 52
20260509200206 17 169 0.0 1.6 0.00 0.00 0.00 52
20260509200106 17 169 0.0 1.6 0.00 0.00 0.00 52
20260509200006 17 169 0.0 1.6 0.00 0.00 0.00 52
20260509195906 17 169 0.0 3.2 0.00 0.00 0.00 52
20260509195806 17 169 0.0 3.2 0.00 0.00 0.00 52
20260509195706 17 169 0.0 3.2 0.00 0.00 0.00 52
20260509195606 17 169 0.0 3.2 0.00 0.00 0.00 51
20260509195506 17 168 0.0 3.2 0.00 0.00 0.00 51
20260509195406 17 159 0.0 1.6 0.00 0.00 0.00 51
20260509195307 17 159 0.0 1.6 0.00 0.00 0.00 51
20260509195206 17 159 0.0 1.6 0.00 0.00 0.00 50
20260509195106 18 159 0.0 1.6 0.00 0.00 0.00 50
20260509195006 18 159 0.0 3.2 0.00 0.00 0.00 50
20260509194906 18 159 0.0 3.2 0.00 0.00 0.00 49
20260509194806 18 159 0.0 3.2 0.00 0.00 0.00 50
20260509194706 18 159 0.0 3.2 0.00 0.00 0.00 50
20260509194606 18 159 0.0 3.2 0.00 0.00 0.00 50
20260509194506 18 159 0.0 3.2 0.00 0.00 0.00 49
20260509194406 18 32 0.0 1.6 0.00 0.00 0.00 48
20260509194306 18 32 0.0 1.6 0.00 0.00 0.00 48
20260509194206 18 32 0.0 1.6 0.00 0.00 0.00 48
20260509194106 18 35 0.0 1.6 0.00 0.00 0.00 47
20260509194006 18 33 0.0 3.2 0.00 0.00 0.00 47
20260509193906 18 34 0.0 3.2 0.00 0.00 0.00 47
20260509193806 18 32 0.0 3.2 0.00 0.00 0.00 47
20260509193706 18 35 0.0 3.2 0.00 0.00 0.00 47
20260509193606 18 34 0.0 3.2 0.00 0.00 0.00 47
20260509193506 18 18 0.0 3.2 0.00 0.00 0.00 47
20260509193406 18 35 0.0 1.6 0.00 0.00 0.00 47
20260509193306 18 36 0.0 1.6 0.00 0.00 0.00 46
20260509193206 18 103 0.0 1.6 0.00 0.00 0.00 46
20260509193106 18 103 0.0 1.6 0.00 0.00 0.00 47
20260509193006 18 103 0.0 1.6 0.00 0.00 0.00 47
20260509192906 18 103 0.0 1.6 0.00 0.00 0.00 46
20260509192806 18 103 0.0 1.6 0.00 0.00 0.00 46
20260509192706 18 103 0.0 1.6 0.00 0.00 0.00 47
20260509192606 18 102 0.0 1.6 0.00 0.00 0.00 46
20260509192506 18 102 0.0 1.6 0.00 0.00 0.00 46
20260509192406 18 102 0.0 1.6 0.00 0.00 0.00 45
20260509192306 19 103 0.0 1.6 0.00 0.00 0.00 45
20260509192206 19 102 0.0 1.6 0.00 0.00 0.00 44
20260509192106 19 103 0.0 1.6 0.00 0.00 0.00 44
20260509192006 19 104 0.0 1.6 0.00 0.00 0.00 44
20260509191906 19 104 0.0 1.6 0.00 0.00 0.00 43
20260509191806 19 104 0.0 1.6 0.00 0.00 0.00 43
20260509191706 19 104 0.0 1.6 0.00 0.00 0.00 43
20260509191606 19 104 0.0 1.6 0.00 0.00 0.00 43
20260509191506 19 103 0.0 1.6 0.00 0.00 0.00 44
20260509191406 19 104 0.0 1.6 0.00 0.00 0.00 44
20260509191306 20 104 0.0 1.6 0.00 0.00 0.00 43
20260509191206 20 103 0.0 1.6 0.00 0.00 0.00 42
20260509191106 20 104 0.0 1.6 0.00 0.00 0.00 42
20260509191006 20 28 0.0 1.6 0.00 0.00 0.00 43
20260509190906 20 30 0.0 3.2 0.00 0.00 0.00 43
20260509190806 20 31 0.0 3.2 0.00 0.00 0.00 42
20260509190706 20 10 0.0 3.2 0.00 0.00 0.00 42
20260509190606 20 30 0.0 3.2 0.00 0.00 0.00 42
20260509190506 20 29 0.0 3.2 0.00 0.00 0.00 42
20260509190406 20 17 0.0 3.2 0.00 0.00 0.00 42
20260509190306 20 342 0.0 1.6 0.00 0.00 0.00 42
20260509190206 20 18 0.0 3.2 0.00 0.00 0.00 41
20260509190106 20 19 0.0 3.2 0.00 0.00 0.00 42
20260509190006 20 19 0.0 3.2 0.00 0.00 0.00 41
20260509185906 20 20 0.0 3.2 0.00 0.00 0.00 41
20260509185806 20 340 0.0 3.2 0.00 0.00 0.00 40
20260509185706 20 23 0.0 3.2 0.00 0.00 0.00 40
20260509185606 20 28 0.0 3.2 0.00 0.00 0.00 40
20260509185506 20 25 0.0 3.2 0.00 0.00 0.00 40
20260509185406 20 28 0.0 3.2 0.00 0.00 0.00 40
20260509185307 20 26 0.0 3.2 0.00 0.00 0.00 39
20260509185206 20 26 1.6 3.2 0.00 0.00 0.00 39
20260509185106 20 34 0.0 3.2 0.00 0.00 0.00 39
20260509185006 20 28 0.0 3.2 0.00 0.00 0.00 39
20260509184906 20 26 0.0 3.2 0.00 0.00 0.00 39
20260509184806 20 28 0.0 3.2 0.00 0.00 0.00 38
20260509184706 20 31 0.0 3.2 0.00 0.00 0.00 40
20260509184606 20 29 0.0 3.2 0.00 0.00 0.00 39
20260509184506 21 22 0.0 3.2 0.00 0.00 0.00 37
20260509184406 21 328 1.6 3.2 0.00 0.00 0.00 37
20260509184306 21 338 0.0 3.2 0.00 0.00 0.00 37
20260509184206 21 29 0.0 3.2 0.00 0.00 0.00 36
20260509184106 21 30 0.0 3.2 0.00 0.00 0.00 36
20260509184006 21 30 0.0 3.2 0.00 0.00 0.00 35
20260509183906 21 27 0.0 3.2 0.00 0.00 0.00 36
20260509183806 21 29 1.6 3.2 0.00 0.00 0.00 35
20260509183706 21 4 0.0 3.2 0.00 0.00 0.00 35
20260509183606 21 31 0.0 3.2 0.00 0.00 0.00 35
20260509183506 21 26 0.0 3.2 0.00 0.00 0.00 35
20260509183406 21 35 0.0 3.2 0.00 0.00 0.00 35
20260509183306 21 341 0.0 3.2 0.00 0.00 0.00 35
20260509183206 21 341 0.0 3.2 0.00 0.00 0.00 35
20260509183106 21 341 0.0 3.2 0.00 0.00 0.00 35
20260509183006 21 336 0.0 3.2 0.00 0.00 0.00 35
20260509182906 21 337 0.0 3.2 0.00 0.00 0.00 35
20260509182806 21 337 0.0 3.2 0.00 0.00 0.00 35
20260509182706 21 336 0.0 3.2 0.00 0.00 0.00 34
20260509182606 21 342 0.0 3.2 0.00 0.00 0.00 34
20260509182506 21 335 0.0 3.2 0.00 0.00 0.00 34
20260509182406 21 334 0.0 3.2 0.00 0.00 0.00 34
20260509182307 21 334 0.0 3.2 0.00 0.00 0.00 34
20260509182206 21 29 0.0 3.2 0.00 0.00 0.00 34
20260509182106 21 15 0.0 3.2 0.00 0.00 0.00 34
20260509182006 21 33 1.6 3.2 0.00 0.00 0.00 34
20260509181906 21 19 0.0 3.2 0.00 0.00 0.00 33
20260509181806 21 18 0.0 3.2 0.00 0.00 0.00 33
20260509181706 21 18 0.0 3.2 0.00 0.00 0.00 33
20260509181606 21 29 0.0 3.2 0.00 0.00 0.00 33
20260509181506 21 24 0.0 3.2 0.00 0.00 0.00 33
20260509181406 21 32 0.0 3.2 0.00 0.00 0.00 32
20260509181306 21 32 0.0 3.2 0.00 0.00 0.00 32
20260509181206 21 26 0.0 3.2 0.00 0.00 0.00 32
20260509181106 21 25 0.0 3.2 0.00 0.00 0.00 32
20260509181006 21 28 1.6 3.2 0.00 0.00 0.00 32
20260509180906 21 28 0.0 3.2 0.00 0.00 0.00 33
20260509180806 21 26 0.0 3.2 0.00 0.00 0.00 32
20260509180706 21 25 0.0 3.2 0.00 0.00 0.00 32
20260509180606 21 33 0.0 3.2 0.00 0.00 0.00 32
20260509180506 21 30 0.0 1.6 0.00 0.00 0.00 33
20260509180406 21 31 0.0 1.6 0.00 0.00 0.00 33
20260509180306 21 31 0.0 1.6 0.00 0.00 0.00 33
20260509180206 21 30 0.0 1.6 0.00 0.00 0.00 32
20260509180106 21 30 0.0 3.2 0.00 0.00 0.00 32
20260509180006 21 31 0.0 3.2 0.00 0.00 0.00 32
20260509175906 21 29 0.0 3.2 0.00 0.00 0.00 32
20260509175806 21 31 0.0 3.2 0.00 0.00 0.00 32
20260509175706 21 34 0.0 3.2 0.00 0.00 0.00 31
20260509175606 21 22 0.0 3.2 0.00 0.00 0.00 31
20260509175506 21 25 1.6 3.2 0.00 0.00 0.00 31
20260509175406 21 14 1.6 3.2 0.00 0.00 0.00 31
20260509175307 21 28 0.0 3.2 0.00 0.00 0.00 31
20260509175206 21 31 0.0 3.2 0.00 0.00 0.00 31
20260509175106 21 33 1.6 6.4 0.00 0.00 0.00 31
20260509175006 22 33 0.0 6.4 0.00 0.00 0.00 31
20260509174906 22 23 0.0 6.4 0.00 0.00 0.00 31
20260509174806 22 32 0.0 6.4 0.00 0.00 0.00 31
20260509174706 22 24 1.6 6.4 0.00 0.00 0.00 30
20260509174606 22 28 1.6 6.4 0.00 0.00 0.00 30
20260509174506 22 30 1.6 6.4 0.00 0.00 0.00 30
20260509174406 22 328 1.6 6.4 0.00 0.00 0.00 30
20260509174306 22 27 1.6 6.4 0.00 0.00 0.00 30
20260509174206 22 15 0.0 6.4 0.00 0.00 0.00 30
20260509174106 22 20 0.0 6.4 0.00 0.00 0.00 30
20260509174006 22 23 3.2 6.4 0.00 0.00 0.00 30
20260509173906 22 31 0.0 6.4 0.00 0.00 0.00 29
20260509173806 22 28 1.6 6.4 0.00 0.00 0.00 30
20260509173706 22 25 1.6 6.4 0.00 0.00 0.00 29
20260509173606 22 19 1.6 6.4 0.00 0.05 0.00 29
20260509173506 22 30 1.6 6.4 0.00 0.05 0.00 29
20260509173406 22 28 1.6 6.4 0.00 0.08 0.00 30
20260509173306 22 331 1.6 6.4 0.00 0.08 0.00 30
20260509173206 22 28 1.6 6.4 0.00 0.10 0.00 30
20260509173106 22 23 1.6 6.4 0.00 0.10 0.00 30
20260509173006 22 22 1.6 6.4 0.00 0.10 0.00 30
20260509172906 22 24 1.6 6.4 0.00 0.10 0.00 29
20260509172806 22 14 3.2 6.4 0.00 0.10 0.00 29
20260509172706 22 20 3.2 6.4 0.00 0.10 0.00 29
20260509172606 22 25 3.2 6.4 0.00 0.10 0.00 29
20260509172506 22 17 3.2 6.4 0.00 0.10 0.00 29
20260509172406 22 25 1.6 6.4 0.00 0.10 0.00 29
20260509172307 22 20 1.6 6.4 0.00 0.10 0.00 29
20260509172206 22 26 0.0 6.4 0.00 0.10 0.00 29
20260509172106 22 28 1.6 8.0 0.00 0.10 0.00 28
20260509172006 22 31 1.6 8.0 0.00 0.10 0.00 29
20260509171906 22 24 1.6 8.0 0.00 0.10 0.00 29
20260509171806 22 24 1.6 8.0 0.00 0.10 0.00 28
20260509171706 23 27 1.6 8.0 0.00 0.10 0.00 28
20260509171606 23 13 1.6 6.4 0.00 0.10 0.00 28
20260509171506 23 23 1.6 6.4 0.00 0.10 0.00 28
20260509171406 23 25 1.6 6.4 0.00 0.10 0.00 28
20260509171306 23 357 1.6 6.4 0.00 0.10 0.00 28
20260509171206 22 343 0.0 6.4 0.00 0.10 0.00 28
20260509171106 22 27 1.6 8.0 0.00 0.10 0.00 27
20260509171006 22 11 1.6 8.0 0.00 0.10 0.00 27
20260509170906 22 29 3.2 8.0 0.00 0.10 0.00 28
20260509170806 22 17 3.2 8.0 0.00 0.10 0.00 27
20260509170706 22 22 3.2 8.0 0.00 0.10 0.00 27
20260509170606 23 26 1.6 8.0 0.00 0.10 0.00 27
20260509170506 23 50 3.2 8.0 0.00 0.10 0.00 27
20260509170406 23 349 1.6 8.0 0.00 0.10 0.00 28
20260509170306 23 29 1.6 8.0 0.00 0.10 0.00 27
20260509170206 23 32 1.6 8.0 0.00 0.10 0.00 27
20260509170106 22 356 3.2 8.0 0.00 0.10 0.00 27
20260509170006 22 17 3.2 8.0 0.00 0.10 0.00 27
20260509165906 22 351 4.8 8.0 0.00 0.10 0.00 27
20260509165806 23 16 3.2 8.0 0.00 0.10 0.00 26
20260509165706 23 22 3.2 8.0 0.00 0.10 0.00 27
20260509165606 23 19 3.2 8.0 0.00 0.10 0.00 27
20260509165506 23 29 3.2 8.0 0.00 0.10 0.00 28
20260509165406 23 17 3.2 11.3 0.00 0.10 0.00 26
20260509165307 23 14 3.2 11.3 0.00 0.10 0.00 27
20260509165206 23 26 1.6 11.3 0.00 0.10 0.00 27
20260509165106 23 353 3.2 11.3 0.00 0.10 0.00 26
20260509165006 23 18 4.8 11.3 0.00 0.10 0.00 27
20260509164906 23 25 3.2 11.3 0.00 0.10 0.00 27
20260509164806 23 26 3.2 11.3 0.00 0.10 0.00 28
20260509164706 23 22 1.6 11.3 0.00 0.10 0.00 27
20260509164606 23 340 1.6 11.3 0.00 0.10 0.00 26
20260509164506 23 28 4.8 11.3 0.00 0.10 0.00 26
20260509164406 23 17 3.2 11.3 0.00 0.10 0.00 25
20260509164306 23 25 4.8 11.3 0.00 0.10 0.00 26
20260509164206 23 22 4.8 11.3 0.00 0.10 0.00 26
20260509164106 23 18 6.4 11.3 0.00 0.10 0.00 26
20260509164006 23 31 3.2 8.0 0.00 0.10 0.00 26
20260509163906 23 27 1.6 8.0 0.00 0.10 0.00 26
20260509163806 23 12 3.2 8.0 0.00 0.10 0.00 27
20260509163706 23 19 6.4 8.0 0.00 0.10 0.00 26
20260509163606 23 26 3.2 8.0 0.00 0.10 0.00 26
20260509163506 23 7 3.2 8.0 0.00 0.10 0.00 28
20260509163406 23 346 3.2 8.0 0.00 0.10 0.00 27
20260509163306 23 25 4.8 8.0 0.00 0.10 0.00 27
20260509163206 23 22 3.2 8.0 0.00 0.10 0.00 28
20260509163106 23 357 3.2 8.0 0.00 0.10 0.00 27
20260509163006 23 29 1.6 6.4 0.00 0.10 0.00 28
20260509162906 23 16 3.2 8.0 0.00 0.10 0.00 28
20260509162806 23 27 3.2 11.3 0.00 0.10 0.00 29
20260509162706 23 26 1.6 11.3 0.00 0.10 0.00 29
20260509162606 23 345 3.2 11.3 0.00 0.10 0.00 28
20260509162506 22 17 4.8 11.3 0.00 0.10 0.00 27
20260509162406 23 26 4.8 12.9 0.00 0.10 0.00 27
20260509162307 23 351 6.4 12.9 0.00 0.10 0.00 27
20260509162206 23 21 4.8 12.9 0.00 0.10 0.00 28
20260509162106 23 19 6.4 12.9 0.00 0.10 0.00 27
20260509162006 23 14 4.8 12.9 0.00 0.10 0.00 26
20260509161906 23 354 4.8 8.0 0.00 0.10 0.00 27
20260509161806 23 3 3.2 8.0 0.00 0.10 0.00 28
20260509161706 23 24 4.8 8.0 0.00 0.10 0.00 27
20260509161606 23 13 4.8 12.9 0.00 0.10 0.00 28
20260509161506 23 349 3.2 12.9 0.00 0.10 0.00 27
20260509161406 23 30 4.8 12.9 0.00 0.10 0.00 27
20260509161306 23 15 6.4 12.9 0.00 0.10 0.00 26
20260509161206 23 354 6.4 12.9 0.00 0.10 0.00 25
20260509161106 23 15 3.2 8.0 0.00 0.10 0.00 26
20260509161006 23 349 1.6 8.0 0.00 0.10 0.00 26
20260509160906 23 29 1.6 8.0 0.00 0.10 0.00 26
20260509160806 23 14 4.8 11.3 0.00 0.10 0.00 26
20260509160706 23 4 3.2 11.3 0.00 0.10 0.00 26
20260509160606 23 350 3.2 11.3 0.00 0.10 0.00 26
20260509160506 23 348 3.2 12.9 0.00 0.10 0.00 25
20260509160406 23 14 6.4 12.9 0.00 0.10 0.00 26
20260509160306 23 11 3.2 12.9 0.00 0.10 0.00 25
20260509160206 23 18 4.8 12.9 0.00 0.10 0.00 25
20260509160106 23 354 6.4 12.9 0.00 0.10 0.00 25
20260509160006 23 15 6.4 11.3 0.00 0.10 0.00 25
20260509155906 23 21 4.8 11.3 0.00 0.10 0.00 25
20260509155806 23 5 3.2 8.0 0.00 0.10 0.00 25
20260509155706 23 23 1.6 8.0 0.00 0.10 0.00 25
20260509155606 23 353 1.6 8.0 0.00 0.10 0.00 25
20260509155506 23 20 1.6 11.3 0.00 0.10 0.00 25
20260509155406 23 23 3.2 11.3 0.00 0.10 0.00 26
20260509155306 23 16 3.2 11.3 0.00 0.10 0.00 25
20260509155206 23 16 4.8 11.3 0.00 0.10 0.00 25
20260509155106 23 347 4.8 11.3 0.00 0.10 0.00 25
20260509155006 23 23 1.6 8.0 0.00 0.10 0.00 26
20260509154906 23 359 3.2 11.3 0.00 0.10 0.00 25
20260509154806 23 14 3.2 11.3 0.00 0.10 0.00 25
20260509154706 23 23 3.2 11.3 0.00 0.10 0.00 25
20260509154606 23 18 1.6 11.3 0.00 0.10 0.00 26
20260509154506 23 18 3.2 11.3 0.00 0.10 0.00 25
20260509154406 23 10 4.8 8.0 0.00 0.10 0.00 26
20260509154306 23 14 4.8 8.0 0.00 0.10 0.00 26
20260509154206 23 17 4.8 11.3 0.00 0.10 0.00 26
20260509154106 23 13 3.2 11.3 0.00 0.10 0.00 25
20260509154006 23 358 4.8 11.3 0.00 0.10 0.00 26
20260509153906 23 9 3.2 11.3 0.00 0.10 0.00 25
20260509153806 23 22 4.8 11.3 0.00 0.10 0.00 26
20260509153706 23 342 4.8 11.3 0.00 0.10 0.00 26
20260509153606 23 353 3.2 11.3 0.00 0.10 0.00 25
20260509153506 23 10 4.8 11.3 0.00 0.10 0.00 25
20260509153406 23 11 6.4 12.9 0.00 0.10 0.00 25
20260509153306 23 20 4.8 12.9 0.00 0.10 0.00 25
20260509153206 23 16 3.2 12.9 0.00 0.10 0.00 25
20260509153106 23 30 4.8 12.9 0.00 0.10 0.00 26
20260509153006 23 345 6.4 12.9 0.00 0.10 0.00 26
20260509152906 23 20 4.8 8.0 0.00 0.10 0.00 25
20260509152806 23 344 4.8 8.0 0.00 0.10 0.00 24
20260509152706 23 26 1.6 8.0 0.00 0.10 0.00 25
20260509152606 23 10 3.2 16.1 0.00 0.10 0.00 26
20260509152506 23 352 3.2 16.1 0.00 0.10 0.00 26
20260509152406 23 41 3.2 16.1 0.00 0.10 0.00 25
20260509152307 23 19 4.8 16.1 0.00 0.10 0.00 25
20260509152206 23 346 8.0 16.1 0.00 0.10 0.00 25
20260509152106 23 12 6.4 12.9 0.00 0.10 0.00 25
20260509152006 23 35 8.0 12.9 0.00 0.10 0.00 25
20260509151906 23 39 4.8 11.3 0.00 0.10 0.00 25
20260509151806 23 16 4.8 11.3 0.00 0.10 0.00 25
20260509151706 23 343 1.6 11.3 0.00 0.10 0.00 26
20260509151606 23 354 3.2 12.9 0.00 0.10 0.00 26
20260509151506 23 16 1.6 12.9 0.00 0.10 0.00 26
20260509151406 23 23 4.8 16.1 0.00 0.10 0.00 25
20260509151306 23 11 6.4 16.1 0.00 0.10 0.00 25
20260509151206 23 8 8.0 16.1 0.00 0.10 0.00 26
20260509151106 23 146 4.8 16.1 0.00 0.10 0.00 26
20260509151006 23 19 6.4 16.1 0.00 0.10 0.00 27
20260509150906 23 16 6.4 12.9 0.00 0.10 0.00 26
20260509150806 23 17 4.8 12.9 0.00 0.10 0.00 26
20260509150706 23 19 8.0 12.9 0.00 0.10 0.00 25
20260509150606 23 16 4.8 11.3 0.00 0.10 0.00 26
20260509150506 23 42 3.2 6.4 0.00 0.10 0.00 27
20260509150406 23 359 1.6 6.4 0.00 0.10 0.00 27
20260509150306 23 24 3.2 11.3 0.00 0.10 0.00 27
20260509150206 23 28 3.2 12.9 0.00 0.10 0.00 27
20260509150106 23 21 4.8 16.1 0.00 0.10 0.00 25
20260509150006 23 18 3.2 16.1 0.00 0.10 0.00 27
20260509145906 23 22 6.4 16.1 0.00 0.10 0.00 26
20260509145806 23 17 8.0 16.1 0.00 0.10 0.00 25
20260509145706 23 4 9.7 16.1 0.00 0.10 0.00 26
20260509145606 23 15 8.0 12.9 0.00 0.10 0.00 26
20260509145506 23 20 8.0 12.9 0.00 0.10 0.00 25
20260509145406 23 39 6.4 12.9 0.00 0.10 0.00 25
20260509145306 23 353 3.2 11.3 0.00 0.10 0.00 25
20260509145206 23 9 4.8 11.3 0.00 0.10 0.00 26
20260509145106 23 350 6.4 11.3 0.00 0.10 0.00 26
20260509145006 23 22 4.8 11.3 0.00 0.10 0.00 27
20260509144906 23 24 4.8 11.3 0.00 0.10 0.00 26
20260509144806 23 95 4.8 12.9 0.00 0.10 0.00 25
20260509144706 23 335 4.8 12.9 0.00 0.10 0.00 25
20260509144606 23 19 4.8 12.9 0.00 0.10 0.00 25
20260509144506 23 22 4.8 12.9 0.00 0.10 0.00 26
20260509144406 23 19 6.4 12.9 0.00 0.10 0.00 26
20260509144306 23 19 6.4 11.3 0.00 0.10 0.00 26
20260509144206 23 18 3.2 11.3 0.00 0.10 0.00 27
20260509144106 23 16 3.2 11.3 0.00 0.10 0.00 26
20260509144006 23 3 4.8 11.3 0.00 0.10 0.00 25
20260509143906 23 24 3.2 11.3 0.00 0.10 0.00 25
20260509143806 23 341 1.6 12.9 0.00 0.10 0.00 26
20260509143706 23 21 3.2 12.9 0.00 0.10 0.00 26
20260509143606 23 340 3.2 12.9 0.00 0.10 0.00 26
20260509143506 23 349 6.4 12.9 0.00 0.10 0.00 25
20260509143406 23 339 8.0 12.9 0.00 0.10 0.00 26
20260509143306 23 353 4.8 11.3 0.00 0.10 0.00 25
20260509143206 23 28 4.8 11.3 0.00 0.10 0.00 26
20260509143106 23 26 4.8 16.1 0.00 0.10 0.00 26
20260509143006 23 22 4.8 16.1 0.00 0.10 0.00 26
20260509142906 23 21 6.4 16.1 0.00 0.10 0.00 26
20260509142806 23 29 8.0 16.1 0.00 0.10 0.00 26
20260509142706 23 14 8.0 16.1 0.00 0.10 0.00 26
20260509142606 23 9 6.4 12.9 0.00 0.10 0.00 26
20260509142506 23 358 6.4 12.9 0.00 0.10 0.00 26
20260509142406 24 20 6.4 12.9 0.00 0.10 0.00 26
20260509142307 24 46 6.4 12.9 0.00 0.10 0.00 27
20260509142206 23 17 3.2 11.3 0.00 0.10 0.00 27
20260509142106 23 345 6.4 12.9 0.00 0.10 0.00 28
20260509142006 23 354 6.4 12.9 0.00 0.10 0.00 27
20260509141906 23 9 1.6 12.9 0.00 0.10 0.00 26
20260509141806 23 18 3.2 12.9 0.00 0.10 0.00 26
20260509141706 23 23 6.4 12.9 0.00 0.10 0.00 26
20260509141606 23 19 6.4 11.3 0.00 0.10 0.00 26
20260509141506 23 5 6.4 16.1 0.00 0.10 0.00 25
20260509141406 23 21 8.0 16.1 0.00 0.10 0.00 25
20260509141306 23 27 4.8 16.1 0.00 0.10 0.00 25
20260509141206 23 20 6.4 16.1 0.00 0.10 0.00 26
20260509141106 23 13 9.7 16.1 0.00 0.10 0.00 25
20260509141006 23 6 6.4 12.9 0.00 0.10 0.00 27
20260509140906 23 352 6.4 12.9 0.00 0.10 0.00 28
20260509140806 23 16 6.4 11.3 0.00 0.10 0.00 27
20260509140706 23 36 4.8 11.3 0.00 0.10 0.00 25
20260509140606 23 16 4.8 11.3 0.00 0.10 0.00 26
20260509140506 23 342 3.2 11.3 0.00 0.10 0.00 26
20260509140406 23 14 3.2 11.3 0.00 0.10 0.00 27
20260509140306 23 26 6.4 11.3 0.00 0.10 0.00 27
20260509140206 23 17 4.8 8.0 0.00 0.10 0.00 26
20260509140106 23 25 3.2 8.0 0.00 0.10 0.00 26
20260509140006 23 5 4.8 8.0 0.00 0.10 0.00 27
20260509135906 23 20 4.8 11.3 0.00 0.10 0.00 27
20260509135806 23 32 3.2 11.3 0.00 0.10 0.00 26
20260509135706 23 21 4.8 11.3 0.00 0.10 0.00 27
20260509135606 23 354 6.4 11.3 0.00 0.10 0.00 26
20260509135506 23 20 6.4 11.3 0.00 0.10 0.00 25
20260509135406 23 15 4.8 11.3 0.00 0.10 0.00 26
20260509135306 23 12 4.8 11.3 0.00 0.10 0.00 27
20260509135206 23 346 6.4 12.9 0.00 0.10 0.00 28
20260509135106 23 357 6.4 12.9 0.00 0.10 0.00 27
20260509135006 23 17 6.4 12.9 0.00 0.10 0.00 26
20260509134906 23 24 4.8 12.9 0.00 0.10 0.00 26
20260509134806 23 18 9.7 12.9 0.00 0.10 0.00 25
20260509134706 23 8 4.8 12.9 0.00 0.10 0.00 26
20260509134606 23 348 6.4 12.9 0.00 0.10 0.00 25
20260509134506 23 349 6.4 12.9 0.00 0.10 0.00 26
20260509134406 23 32 4.8 12.9 0.00 0.10 0.00 26
20260509134306 23 15 6.4 12.9 0.00 0.10 0.00 25
20260509134206 23 359 4.8 16.1 0.00 0.10 0.00 25
20260509134106 23 352 4.8 16.1 0.00 0.10 0.00 25
20260509134006 23 5 4.8 16.1 0.00 0.10 0.00 25
20260509133906 23 4 8.0 16.1 0.00 0.10 0.00 25
20260509133806 23 42 8.0 16.1 0.00 0.10 0.00 24
20260509133706 23 11 4.8 12.9 0.00 0.10 0.00 25
20260509133606 24 27 6.4 12.9 0.00 0.10 0.00 25
20260509133506 24 12 4.8 8.0 0.00 0.10 0.00 27
20260509133406 24 11 6.4 11.3 0.00 0.10 0.00 27
20260509133306 24 5 1.6 12.9 0.00 0.10 0.00 26
20260509133206 23 29 4.8 12.9 0.00 0.10 0.00 26
20260509133106 23 348 3.2 12.9 0.00 0.10 0.00 26
20260509133006 23 15 4.8 12.9 0.00 0.10 0.00 26
20260509132906 23 341 4.8 12.9 0.00 0.10 0.00 27
20260509132806 23 353 6.4 12.9 0.00 0.10 0.00 26
20260509132706 24 342 4.8 12.9 0.00 0.10 0.00 27
20260509132606 23 4 6.4 12.9 0.00 0.10 0.00 27
20260509132506 23 11 3.2 17.7 0.00 0.10 0.00 26
20260509132406 23 23 6.4 17.7 0.00 0.10 0.00 27
20260509132307 23 11 6.4 17.7 0.00 0.10 0.00 27
20260509132206 23 8 8.0 17.7 0.00 0.10 0.00 26
20260509132106 23 353 9.7 17.7 0.00 0.10 0.00 27
20260509132006 23 54 8.0 12.9 0.00 0.10 0.00 26
20260509131906 23 6 6.4 12.9 0.00 0.10 0.00 27
20260509131806 23 345 3.2 11.3 0.00 0.10 0.00 27
20260509131706 23 14 6.4 12.9 0.00 0.10 0.00 27
20260509131606 23 16 6.4 12.9 0.00 0.10 0.00 27
20260509131506 23 15 6.4 12.9 0.00 0.10 0.00 27
20260509131406 23 11 6.4 12.9 0.00 0.10 0.00 27
20260509131306 23 18 8.0 12.9 0.00 0.10 0.00 27
20260509131206 24 14 8.0 12.9 0.00 0.10 0.00 26
20260509131106 24 316 3.2 12.9 0.00 0.10 0.00 27
20260509131006 24 12 1.6 16.1 0.00 0.10 0.00 27
20260509130906 23 39 1.6 16.1 0.00 0.10 0.00 28
20260509130806 23 353 6.4 16.1 0.00 0.10 0.00 28
20260509130706 23 14 4.8 16.1 0.00 0.10 0.00 27
20260509130606 23 29 8.0 16.1 0.00 0.10 0.00 28
20260509130506 23 10 4.8 11.3 0.00 0.10 0.00 27
20260509130406 23 28 4.8 11.3 0.00 0.10 0.00 29
20260509130306 23 27 3.2 11.3 0.00 0.10 0.00 28
20260509130206 23 24 4.8 11.3 0.00 0.10 0.00 28
20260509130106 23 6 6.4 12.9 0.00 0.10 0.00 27
20260509130006 23 11 4.8 12.9 0.00 0.10 0.00 28
20260509125906 23 14 6.4 12.9 0.00 0.10 0.00 28
20260509125806 23 5 3.2 12.9 0.00 0.10 0.00 30
20260509125706 23 16 6.4 12.9 0.00 0.10 0.00 28
20260509125606 23 11 8.0 16.1 0.00 0.10 0.00 28
20260509125506 24 20 4.8 20.9 0.00 0.10 0.00 29
20260509125406 23 20 3.2 20.9 0.00 0.10 0.00 29
20260509125308 23 11 6.4 20.9 0.00 0.10 0.00 29
20260509125206 23 17 8.0 20.9 0.00 0.10 0.00 28
20260509125106 23 22 9.7 20.9 0.00 0.10 0.00 27
20260509125006 23 15 8.0 16.1 0.00 0.10 0.00 25
20260509124906 23 349 8.0 16.1 0.00 0.10 0.00 27
20260509124806 23 352 4.8 12.9 0.00 0.10 0.00 30
20260509124706 23 20 4.8 12.9 0.00 0.10 0.00 30
20260509124606 23 25 6.4 12.9 0.00 0.10 0.00 29
20260509124506 23 351 4.8 11.3 0.00 0.10 0.00 28
20260509124406 23 12 6.4 12.9 0.00 0.10 0.00 30
20260509124306 23 17 4.8 12.9 0.00 0.10 0.00 31
20260509124206 23 335 6.4 12.9 0.00 0.10 0.00 30
20260509124106 23 352 4.8 12.9 0.00 0.10 0.00 30
20260509124006 23 18 4.8 12.9 0.00 0.10 0.00 32
20260509123906 23 357 8.0 12.9 0.00 0.10 0.00 31
20260509123806 23 13 8.0 12.9 0.00 0.10 0.00 31
20260509123706 23 348 6.4 11.3 0.00 0.10 0.00 31
20260509123606 23 354 4.8 11.3 0.00 0.10 0.00 30
20260509123506 24 27 4.8 11.3 0.00 0.10 0.00 32
20260509123406 23 43 4.8 8.0 0.00 0.10 0.00 32
20260509123306 23 14 3.2 8.0 0.00 0.10 0.00 31
20260509123206 23 23 4.8 8.0 0.00 0.10 0.00 32
20260509123106 23 14 4.8 11.3 0.00 0.10 0.00 33
20260509123006 23 26 3.2 12.9 0.00 0.10 0.00 33
20260509122906 23 344 1.6 12.9 0.00 0.10 0.00 32
20260509122806 23 339 4.8 12.9 0.00 0.10 0.00 32
20260509122706 23 19 6.4 12.9 0.00 0.10 0.00 32
20260509122606 23 22 6.4 12.9 0.00 0.10 0.00 33
20260509122506 23 17 6.4 12.9 0.00 0.10 0.00 34
20260509122406 23 15 6.4 12.9 0.00 0.10 0.00 30
20260509122306 23 354 3.2 12.9 0.00 0.10 0.00 29
20260509122206 23 23 4.8 12.9 0.00 0.10 0.00 29
20260509122106 23 21 4.8 12.9 0.00 0.10 0.00 32
20260509122006 23 9 4.8 12.9 0.00 0.10 0.00 36
20260509121906 23 356 6.4 12.9 0.00 0.10 0.00 36
20260509121806 23 15 4.8 12.9 0.00 0.10 0.00 37
20260509121706 23 351 6.4 12.9 0.00 0.10 0.00 59
20260509121606 22 20 6.4 11.3 0.00 0.10 0.00 59
20260509121506 23 350 6.4 11.3 0.00 0.10 0.00 59
20260509121406 23 20 6.4 12.9 0.00 0.10 0.00 59
20260509121306 23 23 6.4 16.1 0.00 0.10 0.00 59
20260509121206 23 355 4.8 16.1 0.00 0.10 0.00 59
20260509121106 23 26 4.8 16.1 0.00 0.10 0.00 59
20260509121006 23 348 8.0 16.1 0.00 0.10 0.00 59
20260509120906 23 22 8.0 16.1 0.00 0.10 0.00 59
20260509120806 23 355 4.8 12.9 0.00 0.10 0.00 59
20260509120706 23 31 3.2 11.3 0.00 0.10 0.00 59
20260509120606 23 16 4.8 11.3 0.00 0.10 0.00 59
20260509120506 23 18 6.4 11.3 0.00 0.10 0.00 59
20260509120406 23 7 6.4 12.9 0.00 0.10 0.00 59
20260509120306 23 13 4.8 12.9 0.00 0.10 0.00 59
20260509120206 23 23 4.8 12.9 0.00 0.10 0.00 59
20260509120106 23 18 4.8 12.9 0.00 0.10 0.00 59
20260509120006 23 17 6.4 12.9 0.00 0.10 0.00 59
20260509115906 23 40 4.8 17.7 0.00 0.10 0.00 59
20260509115806 23 4 3.2 17.7 0.00 0.10 0.00 59
20260509115706 23 24 4.8 17.7 0.00 0.10 0.00 59
20260509115606 23 346 4.8 17.7 0.00 0.10 0.00 59
20260509115506 23 15 4.8 17.7 0.00 0.10 0.00 59
20260509115406 22 24 3.2 11.3 0.00 0.10 0.00 59
20260509115308 23 355 4.8 12.9 0.00 0.10 0.00 59
20260509115206 23 353 3.2 12.9 0.00 0.10 0.00 59
20260509115106 23 72 6.4 12.9 0.00 0.10 0.00 59
20260509115006 22 12 4.8 12.9 0.00 0.10 0.00 59
20260509114906 22 22 8.0 12.9 0.00 0.10 0.00 59
20260509114806 22 16 3.2 11.3 0.00 0.10 0.00 59
20260509114706 22 13 4.8 12.9 0.00 0.10 0.00 59
20260509114606 22 22 6.4 12.9 0.00 0.10 0.00 59
20260509114506 22 12 4.8 12.9 0.00 0.10 0.00 59
20260509114406 22 24 3.2 12.9 0.00 0.10 0.00 59
20260509114306 22 17 8.0 12.9 0.00 0.10 0.00 59
20260509114206 22 10 4.8 12.9 0.00 0.10 0.00 59
20260509114106 23 25 1.6 12.9 0.00 0.10 0.00 59
20260509114006 22 33 4.8 12.9 0.00 0.10 0.00 59
20260509113906 23 354 6.4 12.9 0.00 0.10 0.00 59
20260509113806 23 4 4.8 12.9 0.00 0.10 0.00 59
20260509113706 23 21 6.4 12.9 0.00 0.10 0.00 59
20260509113606 23 341 6.4 12.9 0.00 0.10 0.00 59
20260509113506 23 7 3.2 11.3 0.00 0.10 0.00 59
20260509113406 22 23 3.2 11.3 0.00 0.10 0.00 59
20260509113306 22 33 3.2 11.3 0.00 0.10 0.00 59
20260509113206 22 16 6.4 11.3 0.00 0.10 0.00 59
20260509113106 22 15 6.4 11.3 0.00 0.10 0.00 59
20260509113006 23 8 1.6 11.3 0.00 0.10 0.00 59
20260509112906 23 21 4.8 11.3 0.00 0.10 0.00 59
20260509112806 22 20 3.2 11.3 0.00 0.10 0.00 59
20260509112706 22 20 1.6 11.3 0.00 0.10 0.00 59
20260509112606 22 337 4.8 12.9 0.00 0.10 0.00 59
20260509112506 22 346 4.8 12.9 0.00 0.10 0.00 59
20260509112406 22 4 1.6 12.9 0.00 0.10 0.00 59
20260509112307 22 21 4.8 12.9 0.00 0.10 0.00 59
20260509112206 22 13 8.0 16.1 0.00 0.10 0.00 59
20260509112106 22 21 4.8 16.1 0.00 0.10 0.00 59
20260509112006 22 356 4.8 16.1 0.00 0.10 0.00 59
20260509111906 22 20 6.4 16.1 0.00 0.10 0.00 59
20260509111806 22 358 11.3 16.1 0.00 0.10 0.00 59
20260509111706 22 8 9.7 16.1 0.00 0.10 0.00 59
20260509111606 22 357 4.8 11.3 0.00 0.10 0.00 59
20260509111506 22 346 3.2 11.3 0.00 0.10 0.00 59
20260509111406 22 28 3.2 11.3 0.00 0.10 0.00 59
20260509111306 22 29 3.2 11.3 0.00 0.10 0.00 59
20260509111206 22 9 6.4 11.3 0.00 0.10 0.00 59
20260509111106 22 351 3.2 12.9 0.00 0.10 0.00 59
20260509111006 22 14 1.6 12.9 0.00 0.10 0.00 59
20260509110906 22 349 3.2 12.9 0.00 0.10 0.00 59
20260509110806 22 13 4.8 12.9 0.00 0.10 0.00 59
20260509110706 22 16 4.8 12.9 0.00 0.10 0.00 59
20260509110606 22 11 8.0 12.9 0.00 0.10 0.00 59
20260509110506 22 4 6.4 11.3 0.00 0.10 0.00 59
20260509110406 22 14 3.2 11.3 0.00 0.10 0.00 59
20260509110306 22 25 3.2 11.3 0.00 0.10 0.00 59
20260509110206 22 15 0.0 11.3 0.00 0.10 0.00 59
20260509110106 22 30 4.8 11.3 0.00 0.10 0.00 59
20260509110006 22 17 4.8 11.3 0.00 0.10 0.00 59
20260509105906 22 24 3.2 11.3 0.00 0.10 0.00 59
20260509105806 22 18 3.2 11.3 0.00 0.10 0.00 59
20260509105706 22 28 4.8 11.3 0.00 0.10 0.00 59
20260509105606 22 11 4.8 11.3 0.00 0.10 0.00 59
20260509105506 22 23 4.8 11.3 0.00 0.10 0.00 59
20260509105406 22 13 3.2 11.3 0.00 0.10 0.00 59
20260509105306 22 20 3.2 11.3 0.00 0.10 0.00 59
20260509105206 22 354 3.2 11.3 0.00 0.10 0.00 59
20260509105106 22 23 4.8 11.3 0.00 0.10 0.00 59
20260509105006 22 27 1.6 11.3 0.00 0.10 0.00 59
20260509104906 21 16 3.2 11.3 0.00 0.10 0.00 59
20260509104806 22 16 6.4 11.3 0.00 0.10 0.00 59
20260509104706 21 355 6.4 11.3 0.00 0.10 0.00 59
20260509104606 21 30 4.8 8.0 0.00 0.10 0.00 59
20260509104506 21 19 3.2 11.3 0.00 0.10 0.00 59
20260509104406 21 353 4.8 12.9 0.00 0.10 0.00 59
20260509104306 21 329 4.8 12.9 0.00 0.10 0.00 59
20260509104206 22 17 3.2 12.9 0.00 0.10 0.00 59
20260509104108 22 340 4.8 12.9 0.00 0.10 0.00 59
20260509104006 22 27 6.4 12.9 0.00 0.10 0.00 59
20260509103906 22 12 8.0 12.9 0.00 0.10 0.00 59
20260509103806 22 22 3.2 11.3 0.00 0.10 0.00 59
20260509103706 21 33 1.6 11.3 0.00 0.10 0.00 59
20260509103606 21 345 1.6 11.3 0.00 0.10 0.00 59
20260509103506 21 28 4.8 11.3 0.00 0.10 0.00 59
20260509103406 22 4 4.8 11.3 0.00 0.10 0.00 59
20260509103306 21 12 0.0 11.3 0.00 0.10 0.00 59
20260509103206 21 28 3.2 11.3 0.00 0.10 0.00 59
20260509103106 21 138 4.8 11.3 0.00 0.10 0.00 59
20260509103006 21 3 3.2 12.9 0.00 0.10 0.00 59
20260509102906 21 29 4.8 12.9 0.00 0.10 0.00 59
20260509102806 21 13 6.4 12.9 0.00 0.10 0.00 59
20260509102706 21 10 4.8 12.9 0.00 0.10 0.00 59
20260509102606 21 27 4.8 12.9 0.00 0.10 0.00 59
20260509102506 21 24 3.2 8.0 0.00 0.10 0.00 59
20260509102406 21 33 1.6 12.9 0.00 0.10 0.00 59
20260509102306 21 27 3.2 12.9 0.00 0.10 0.00 59
20260509102206 21 29 3.2 12.9 0.00 0.10 0.00 59
20260509102106 21 19 4.8 12.9 0.00 0.10 0.00 59
20260509102006 21 25 6.4 12.9 0.00 0.10 0.00 59
20260509101906 21 343 3.2 8.0 0.00 0.10 0.00 59
20260509101806 20 29 1.6 8.0 0.00 0.10 0.00 59
20260509101706 20 19 4.8 8.0 0.00 0.10 0.00 59
20260509101606 21 28 4.8 8.0 0.00 0.10 0.00 59
20260509101506 21 12 4.8 8.0 0.00 0.10 0.00 59
20260509101406 21 25 4.8 11.3 0.00 0.10 0.00 59
20260509101306 20 23 3.2 11.3 0.00 0.10 0.00 59
20260509101206 20 86 3.2 12.9 0.00 0.10 0.00 59
20260509101106 20 21 4.8 12.9 0.00 0.10 0.00 59
20260509101006 20 26 4.8 12.9 0.00 0.10 0.00 59
20260509100906 20 25 3.2 12.9 0.00 0.10 0.00 59
20260509100806 20 14 4.8 12.9 0.00 0.10 0.00 59
20260509100706 20 25 3.2 8.0 0.00 0.10 0.00 59
20260509100606 20 332 3.2 8.0 0.00 0.10 0.00 59
20260509100506 20 20 4.8 8.0 0.00 0.10 0.00 59
20260509100406 20 21 4.8 8.0 0.00 0.10 0.00 59
20260509100306 20 19 4.8 11.3 0.00 0.10 0.00 59
20260509100206 20 14 1.6 11.3 0.00 0.10 0.00 59
20260509100106 20 29 1.6 11.3 0.00 0.10 0.00 59
20260509100006 20 13 4.8 11.3 0.00 0.10 0.00 59
20260509095906 20 12 6.4 11.3 0.00 0.10 0.00 59
20260509095806 20 10 1.6 8.0 0.00 0.10 0.00 59
20260509095706 20 22 3.2 8.0 0.00 0.10 0.00 59
20260509095606 20 35 3.2 11.3 0.00 0.10 0.00 59
20260509095506 20 27 1.6 11.3 0.00 0.10 0.00 59
20260509095406 20 354 3.2 11.3 0.00 0.10 0.00 59
20260509095306 20 23 3.2 11.3 0.00 0.10 0.00 59
20260509095206 20 20 3.2 11.3 0.00 0.10 0.00 59
20260509095106 20 353 3.2 11.3 0.00 0.10 0.00 59
20260509095006 20 30 4.8 11.3 0.00 0.10 0.00 59
20260509094906 20 18 4.8 11.3 0.00 0.10 0.00 59
20260509094806 20 20 3.2 6.4 0.00 0.10 0.00 59
20260509094706 20 30 1.6 8.0 0.00 0.10 0.00 59
20260509094606 20 25 0.0 8.0 0.00 0.10 0.00 59
20260509094506 20 29 0.0 11.3 0.00 0.10 0.00 59
20260509094406 20 341 1.6 11.3 0.00 0.10 0.00 59
20260509094306 20 20 4.8 11.3 0.00 0.10 0.00 59
20260509094206 20 21 4.8 11.3 0.00 0.10 0.00 59
20260509094106 20 41 3.2 11.3 0.00 0.10 0.00 59
20260509094006 20 20 4.8 12.9 0.00 0.10 0.00 59
20260509093906 20 15 4.8 12.9 0.00 0.10 0.00 59
20260509093806 20 33 3.2 12.9 0.00 0.10 0.00 59
20260509093706 20 23 4.8 12.9 0.00 0.10 0.00 59
20260509093606 20 347 6.4 12.9 0.00 0.10 0.00 59
20260509093506 20 3 3.2 8.0 0.00 0.10 0.00 59
20260509093406 20 26 0.0 8.0 0.00 0.10 0.00 59
20260509093306 20 32 3.2 8.0 0.00 0.10 0.00 59
20260509093206 20 355 3.2 8.0 0.00 0.10 0.00 59
20260509093106 20 30 3.2 6.4 0.00 0.10 0.00 59
20260509093006 19 19 3.2 6.4 0.00 0.10 0.00 59
20260509092906 19 29 3.2 6.4 0.00 0.10 0.00 59
20260509092806 19 29 3.2 8.0 0.00 0.10 0.00 59
20260509092706 20 342 3.2 8.0 0.00 0.10 0.00 59
20260509092606 19 17 4.8 8.0 0.00 0.10 0.00 59
20260509092506 20 17 1.6 8.0 0.00 0.10 0.00 59
20260509092406 20 24 3.2 8.0 0.00 0.10 0.00 59
20260509092306 19 24 3.2 8.0 0.00 0.10 0.00 59
20260509092206 19 27 4.8 8.0 0.00 0.10 0.00 59
20260509092106 19 10 3.2 8.0 0.00 0.10 0.00 59
20260509092006 20 21 4.8 8.0 0.00 0.10 0.00 59
20260509091906 20 28 3.2 8.0 0.00 0.10 0.00 59
20260509091806 20 26 1.6 8.0 0.00 0.10 0.00 59
20260509091706 19 47 1.6 11.3 0.00 0.10 0.00 59
20260509091606 19 21 4.8 11.3 0.00 0.10 0.00 59
20260509091506 19 11 4.8 11.3 0.00 0.10 0.00 59
20260509091406 19 350 4.8 11.3 0.00 0.10 0.00 59
20260509091306 19 18 3.2 11.3 0.00 0.10 0.00 59
20260509091206 19 29 4.8 11.3 0.00 0.10 0.00 59
20260509091106 19 31 0.0 6.4 0.00 0.10 0.00 59
20260509091006 19 27 0.0 6.4 0.00 0.10 0.00 59
20260509090906 19 24 1.6 6.4 0.00 0.10 0.00 59
20260509090806 19 32 0.0 6.4 0.00 0.10 0.00 59
20260509090706 19 53 3.2 6.4 0.00 0.10 0.00 59
20260509090606 19 31 3.2 8.0 0.00 0.10 0.00 59
20260509090506 19 348 0.0 8.0 0.00 0.10 0.00 59
20260509090406 19 21 1.6 8.0 0.00 0.10 0.00 59
20260509090306 19 15 3.2 8.0 0.00 0.10 0.00 59
20260509090206 19 18 3.2 8.0 0.00 0.10 0.00 59
20260509090106 19 16 3.2 8.0 0.00 0.10 0.00 59
20260509090006 18 344 1.6 6.4 0.00 0.10 0.00 59
20260509085906 18 29 0.0 6.4 0.00 0.10 0.00 59
20260509085806 18 30 1.6 6.4 0.00 0.10 0.00 59
20260509085706 18 30 0.0 8.0 0.00 0.10 0.00 59
20260509085606 18 28 3.2 8.0 0.00 0.10 0.00 59
20260509085506 18 30 1.6 8.0 0.00 0.10 0.00 59
20260509085406 18 91 0.0 8.0 0.00 0.10 0.00 59
20260509085306 18 16 4.8 8.0 0.00 0.10 0.00 59
20260509085206 18 26 3.2 6.4 0.00 0.10 0.00 59
20260509085106 18 32 3.2 6.4 0.00 0.10 0.00 59
20260509085006 17 345 1.6 6.4 0.00 0.10 0.00 59
20260509084906 17 23 1.6 6.4 0.00 0.10 0.00 59
20260509084806 18 15 3.2 6.4 0.00 0.10 0.00 59
20260509084706 18 25 3.2 6.4 0.00 0.10 0.00 59
20260509084606 18 17 3.2 8.0 0.00 0.10 0.00 59
20260509084506 18 16 3.2 8.0 0.00 0.10 0.00 59
20260509084406 18 23 4.8 8.0 0.00 0.10 0.00 59
20260509084306 18 13 3.2 8.0 0.00 0.10 0.00 59
20260509084206 18 26 3.2 8.0 0.00 0.10 0.00 59
20260509084106 18 24 0.0 8.0 0.00 0.10 0.00 59
20260509084006 18 21 3.2 8.0 0.00 0.10 0.00 59
20260509083906 18 27 4.8 8.0 0.00 0.10 0.00 59
20260509083806 18 18 4.8 8.0 0.00 0.10 0.00 59
20260509083706 17 32 4.8 8.0 0.00 0.10 0.00 59
20260509083606 18 346 3.2 8.0 0.00 0.10 0.00 59
20260509083506 17 10 3.2 8.0 0.00 0.10 0.00 59
20260509083406 18 29 4.8 8.0 0.00 0.10 0.00 59
20260509083306 18 15 4.8 8.0 0.00 0.10 0.00 59
20260509083206 18 22 3.2 8.0 0.00 0.10 0.00 59
20260509083106 18 7 1.6 8.0 0.00 0.10 0.00 59
20260509083006 18 29 3.2 8.0 0.00 0.10 0.00 59
20260509082906 18 26 3.2 8.0 0.00 0.10 0.00 59
20260509082806 18 30 3.2 8.0 0.00 0.10 0.00 59
20260509082706 18 34 1.6 8.0 0.00 0.10 0.00 59
20260509082606 18 27 3.2 8.0 0.00 0.10 0.00 59
20260509082506 18 29 0.0 8.0 0.00 0.10 0.00 59
20260509082406 17 32 0.0 8.0 0.00 0.10 0.00 59
20260509082307 17 30 3.2 8.0 0.00 0.10 0.00 59
20260509082206 18 24 3.2 8.0 0.00 0.10 0.00 59
20260509082106 18 25 0.0 8.0 0.00 0.10 0.00 59
20260509082006 17 27 0.0 8.0 0.00 0.10 0.00 59
20260509081906 17 25 3.2 8.0 0.00 0.10 0.00 59
20260509081806 17 26 1.6 8.0 0.00 0.10 0.00 59
20260509081706 17 28 4.8 8.0 0.00 0.10 0.00 59
20260509081606 17 356 1.6 8.0 0.00 0.10 0.00 59
20260509081506 17 330 1.6 8.0 0.00 0.10 0.00 59
20260509081406 17 30 3.2 8.0 0.00 0.10 0.00 59
20260509081306 17 26 3.2 8.0 0.00 0.10 0.00 59
20260509081206 17 20 4.8 8.0 0.00 0.10 0.00 59
20260509081106 18 10 1.6 8.0 0.00 0.10 0.00 59
20260509081006 18 333 0.0 8.0 0.00 0.10 0.00 59
20260509080906 17 25 1.6 8.0 0.00 0.10 0.00 59
20260509080806 17 356 3.2 8.0 0.00 0.10 0.00 59
20260509080706 18 15 4.8 8.0 0.00 0.10 0.00 59
20260509080606 18 5 1.6 6.4 0.00 0.10 0.00 59
20260509080506 17 13 0.0 6.4 0.00 0.10 0.00 59
20260509080406 17 10 0.0 6.4 0.00 0.10 0.00 59
20260509080306 17 14 1.6 8.0 0.00 0.10 0.00 59
20260509080206 17 28 0.0 8.0 0.00 0.10 0.00 59
20260509080106 17 30 1.6 8.0 0.00 0.10 0.00 58
20260509080006 17 326 1.6 8.0 0.00 0.10 0.00 59
20260509075906 17 35 3.2 8.0 0.00 0.10 0.00 58
20260509075806 17 38 0.0 6.4 0.00 0.10 0.00 58
20260509075706 17 14 0.0 11.3 0.00 0.10 0.00 58
20260509075606 17 28 3.2 11.3 0.00 0.10 0.00 58
20260509075506 17 29 0.0 11.3 0.00 0.10 0.00 60